Time,TemperatureF,DewpointF,PressureIn,WindDirection,WindDirectionDegrees,WindSpeedMPH,WindSpeedGustMPH,Humidity,HourlyPrecipIn,Conditions,Clouds,dailyrainin,SoftwareType,DateUTC
2013-07-19 00:00:00,79.5,73.2,29.86,WNW,283,0.0,0.0,81,0.00,,,0.01,Wunderground v.1.15,2013-07-19 04:00:00,
2013-07-19 00:01:00,79.5,73.2,29.86,WNW,284,0.0,0.0,81,0.00,,,0.01,Wunderground v.1.15,2013-07-19 04:01:00,
2013-07-19 00:03:00,79.4,73.1,29.85,WNW,284,0.0,0.0,81,0.00,,,0.00,Wunderground v.1.15,2013-07-19 04:03:00,
2013-07-19 00:04:00,79.4,73.1,29.85,WNW,284,1.0,1.0,81,0.00,,,0.00,Wunderground v.1.15,2013-07-19 04:04:00,
2013-07-19 00:08:00,79.3,73.0,29.85,WNW,284,2.0,2.0,81,0.00,,,0.00,Wunderground v.1.15,2013-07-19 04:08:00,
2013-07-19 00:09:00,79.3,73.0,29.85,WNW,283,0.0,0.0,81,0.00,,,0.00,Wunderground v.1.15,2013-07-19 04:09:00,
2013-07-19 00:10:00,79.3,73.0,29.85,WNW,284,0.0,0.0,81,0.00,,,0.00,Wunderground v.1.15,2013-07-19 04:10:00,
2013-07-19 00:12:00,79.3,73.3,29.85,WNW,284,0.0,0.0,82,0.00,,,0.00,Wunderground v.1.15,2013-07-19 04:12:00,
2013-07-19 00:14:00,79.2,73.2,29.85,WNW,283,0.0,0.0,82,0.00,,,0.00,Wunderground v.1.15,2013-07-19 04:14:00,
2013-07-19 00:16:00,79.2,73.2,29.85,WNW,284,0.0,0.0,82,0.00,,,0.00,Wunderground v.1.15,2013-07-19 04:16:00,
2013-07-19 00:17:00,79.2,73.2,29.86,WNW,284,0.0,0.0,82,0.00,,,0.00,Wunderground v.1.15,2013-07-19 04:17:00,
2013-07-19 00:21:00,79.1,73.1,29.86,WNW,283,0.0,0.0,82,0.00,,,0.00,Wunderground v.1.15,2013-07-19 04:21:00,
2013-07-19 00:22:00,79.1,73.5,29.86,WNW,283,0.0,0.0,83,0.00,,,0.00,Wunderground v.1.15,2013-07-19 04:22:00,
2013-07-19 00:25:00,79.1,73.5,29.86,WNW,296,0.0,1.0,83,0.00,,,0.00,Wunderground v.1.15,2013-07-19 04:25:00,
2013-07-19 00:28:00,79.2,73.6,29.86,WNW,296,0.0,1.0,83,0.00,,,0.00,Wunderground v.1.15,2013-07-19 04:28:00,
2013-07-19 00:29:00,79.2,73.6,29.86,WNW,296,2.0,2.0,83,0.00,,,0.00,Wunderground v.1.15,2013-07-19 04:29:00,
2013-07-19 00:33:00,79.3,73.3,29.86,WNW,300,0.0,2.0,82,0.00,,,0.00,Wunderground v.1.15,2013-07-19 04:33:00,
2013-07-19 00:34:00,79.3,73.3,29.86,WNW,300,0.0,2.0,82,0.00,,,0.00,Wunderground v.1.15,2013-07-19 04:34:00,
2013-07-19 00:35:00,79.3,73.3,29.86,WNW,300,0.0,2.0,82,0.00,,,0.00,Wunderground v.1.15,2013-07-19 04:35:00,
2013-07-19 00:39:00,79.3,73.3,29.86,WNW,300,0.0,1.0,82,0.00,,,0.00,Wunderground v.1.15,2013-07-19 04:39:00,
2013-07-19 00:40:00,79.3,73.3,29.86,WNW,300,0.0,1.0,82,0.00,,,0.00,Wunderground v.1.15,2013-07-19 04:40:00,
2013-07-19 00:41:00,79.3,73.3,29.86,NW,304,0.0,1.0,82,0.00,,,0.00,Wunderground v.1.15,2013-07-19 04:41:00,
2013-07-19 00:42:00,79.3,73.7,29.86,NW,304,0.0,1.0,83,0.00,,,0.00,Wunderground v.1.15,2013-07-19 04:42:00,
2013-07-19 00:44:00,79.3,73.7,29.86,NW,304,0.0,4.0,83,0.00,,,0.00,Wunderground v.1.15,2013-07-19 04:44:00,
2013-07-19 00:45:00,79.3,73.7,29.86,NW,304,0.0,4.0,83,0.00,,,0.00,Wunderground v.1.15,2013-07-19 04:45:00,
2013-07-19 00:46:00,79.3,73.7,29.86,WNW,288,4.0,4.0,83,0.00,,,0.00,Wunderground v.1.15,2013-07-19 04:46:00,
2013-07-19 00:48:00,79.2,73.6,29.85,WNW,288,0.0,4.0,83,0.00,,,0.00,Wunderground v.1.15,2013-07-19 04:48:00,
2013-07-19 00:49:00,79.3,73.7,29.85,WNW,300,2.0,2.0,83,0.00,,,0.00,Wunderground v.1.15,2013-07-19 04:49:00,
2013-07-19 00:52:00,79.3,73.7,29.85,NW,306,2.0,3.0,83,0.00,,,0.00,Wunderground v.1.15,2013-07-19 04:52:00,
2013-07-19 00:53:00,79.3,73.7,29.85,NW,306,0.0,3.0,83,0.00,,,0.00,Wunderground v.1.15,2013-07-19 04:53:00,
2013-07-19 00:54:00,79.3,73.7,29.85,NW,306,0.0,3.0,83,0.00,,,0.00,Wunderground v.1.15,2013-07-19 04:54:00,
2013-07-19 00:57:00,79.3,73.7,29.85,WNW,295,2.0,5.0,83,0.00,,,0.00,Wunderground v.1.15,2013-07-19 04:57:00,
2013-07-19 00:59:00,79.3,73.7,29.85,NW,310,2.0,2.0,83,0.00,,,0.00,Wunderground v.1.15,2013-07-19 04:59:00,
2013-07-19 01:01:00,79.3,73.7,29.85,WNW,302,0.0,2.0,83,0.00,,,0.00,Wunderground v.1.15,2013-07-19 05:01:00,
2013-07-19 01:02:00,79.3,73.7,29.85,WNW,302,0.0,2.0,83,0.00,,,0.00,Wunderground v.1.15,2013-07-19 05:02:00,
2013-07-19 01:04:00,79.3,73.7,29.85,WNW,301,1.0,2.0,83,0.00,,,0.00,Wunderground v.1.15,2013-07-19 05:04:00,
2013-07-19 01:07:00,79.2,73.6,29.85,WNW,300,0.0,4.0,83,0.00,,,0.00,Wunderground v.1.15,2013-07-19 05:07:00,
2013-07-19 01:08:00,79.2,73.6,29.85,WNW,295,4.0,4.0,83,0.00,,,0.00,Wunderground v.1.15,2013-07-19 05:08:00,
2013-07-19 01:10:00,79.2,73.6,29.85,WNW,292,1.0,2.0,83,0.00,,,0.00,Wunderground v.1.15,2013-07-19 05:10:00,
2013-07-19 01:12:00,79.1,73.5,29.85,WNW,291,0.0,2.0,83,0.00,,,0.00,Wunderground v.1.15,2013-07-19 05:12:00,
2013-07-19 01:14:00,79.1,73.5,29.85,WNW,293,0.0,4.0,83,0.00,,,0.00,Wunderground v.1.15,2013-07-19 05:14:00,
2013-07-19 01:15:00,79.1,73.5,29.85,WNW,292,0.0,4.0,83,0.00,,,0.00,Wunderground v.1.15,2013-07-19 05:15:00,
2013-07-19 01:16:00,79.1,73.5,29.85,WNW,292,0.0,4.0,83,0.00,,,0.00,Wunderground v.1.15,2013-07-19 05:16:00,
2013-07-19 01:19:00,79.0,73.4,29.84,WNW,292,0.0,1.0,83,0.00,,,0.00,Wunderground v.1.15,2013-07-19 05:19:00,
2013-07-19 01:21:00,79.0,73.4,29.84,WNW,293,0.0,1.0,83,0.00,,,0.00,Wunderground v.1.15,2013-07-19 05:21:00,
2013-07-19 01:22:00,79.0,73.4,29.84,WNW,293,0.0,1.0,83,0.00,,,0.00,Wunderground v.1.15,2013-07-19 05:22:00,
2013-07-19 01:24:00,78.9,73.3,29.84,West,272,5.0,5.0,83,0.00,,,0.00,Wunderground v.1.15,2013-07-19 05:24:00,
2013-07-19 01:27:00,78.8,73.6,29.84,West,271,0.0,5.0,84,0.00,,,0.00,Wunderground v.1.15,2013-07-19 05:27:00,
2013-07-19 01:28:00,78.8,73.6,29.84,West,275,0.0,5.0,84,0.00,,,0.00,Wunderground v.1.15,2013-07-19 05:28:00,
2013-07-19 01:29:00,78.7,73.5,29.84,West,275,0.0,1.0,84,0.00,,,0.00,Wunderground v.1.15,2013-07-19 05:29:00,
2013-07-19 01:33:00,78.7,73.5,29.83,West,275,0.0,2.0,84,0.00,,,0.00,Wunderground v.1.15,2013-07-19 05:33:00,
2013-07-19 01:35:00,78.6,73.4,29.83,West,261,1.0,4.0,84,0.00,,,0.00,Wunderground v.1.15,2013-07-19 05:35:00,
2013-07-19 01:36:00,78.5,73.3,29.83,West,260,0.0,4.0,84,0.00,,,0.00,Wunderground v.1.15,2013-07-19 05:36:00,
2013-07-19 01:37:00,78.5,73.3,29.83,West,260,0.0,4.0,84,0.00,,,0.00,Wunderground v.1.15,2013-07-19 05:37:00,
2013-07-19 01:41:00,78.4,73.2,29.83,West,261,0.0,1.0,84,0.00,,,0.00,Wunderground v.1.15,2013-07-19 05:41:00,
2013-07-19 01:42:00,78.4,73.2,29.83,West,260,0.0,1.0,84,0.00,,,0.00,Wunderground v.1.15,2013-07-19 05:42:00,
2013-07-19 01:43:00,78.4,73.2,29.83,West,261,1.0,1.0,84,0.00,,,0.00,Wunderground v.1.15,2013-07-19 05:43:00,
2013-07-19 01:45:00,78.3,73.1,29.83,West,261,0.0,1.0,84,0.00,,,0.00,Wunderground v.1.15,2013-07-19 05:45:00,
2013-07-19 01:47:00,78.3,73.4,29.83,WNW,286,0.0,4.0,85,0.00,,,0.00,Wunderground v.1.15,2013-07-19 05:47:00,
2013-07-19 01:48:00,78.3,73.4,29.83,WNW,286,0.0,4.0,85,0.00,,,0.00,Wunderground v.1.15,2013-07-19 05:48:00,
2013-07-19 01:52:00,78.2,73.3,29.83,WNW,286,1.0,1.0,85,0.00,,,0.00,Wunderground v.1.15,2013-07-19 05:52:00,
2013-07-19 01:53:00,78.2,73.3,29.83,West,268,4.0,4.0,85,0.00,,,0.00,Wunderground v.1.15,2013-07-19 05:53:00,
2013-07-19 01:56:00,78.2,73.3,29.83,WSW,248,2.0,4.0,85,0.00,,,0.00,Wunderground v.1.15,2013-07-19 05:56:00,
2013-07-19 01:58:00,78.2,73.3,29.83,WSW,248,1.0,4.0,85,0.00,,,0.00,Wunderground v.1.15,2013-07-19 05:58:00,
2013-07-19 02:00:00,78.2,73.3,29.83,WSW,250,0.0,1.0,85,0.00,,,0.00,Wunderground v.1.15,2013-07-19 06:00:00,
2013-07-19 02:01:00,78.2,73.3,29.83,WSW,251,1.0,3.0,85,0.00,,,0.00,Wunderground v.1.15,2013-07-19 06:01:00,
2013-07-19 02:04:00,78.2,73.3,29.83,WNW,299,0.0,7.0,85,0.00,,,0.00,Wunderground v.1.15,2013-07-19 06:04:00,
2013-07-19 02:05:00,78.1,73.2,29.83,WNW,299,0.0,7.0,85,0.00,,,0.00,Wunderground v.1.15,2013-07-19 06:05:00,
2013-07-19 02:06:00,78.1,73.2,29.83,WNW,299,0.0,7.0,85,0.00,,,0.00,Wunderground v.1.15,2013-07-19 06:06:00,
2013-07-19 02:07:00,78.1,73.2,29.83,WNW,299,0.0,7.0,85,0.00,,,0.00,Wunderground v.1.15,2013-07-19 06:07:00,
2013-07-19 02:09:00,78.0,73.1,29.83,WNW,299,0.0,1.0,85,0.00,,,0.00,Wunderground v.1.15,2013-07-19 06:09:00,
2013-07-19 02:11:00,78.0,73.1,29.83,WNW,299,0.0,1.0,85,0.00,,,0.00,Wunderground v.1.15,2013-07-19 06:11:00,
2013-07-19 02:12:00,78.0,73.1,29.83,WNW,299,0.0,1.0,85,0.00,,,0.00,Wunderground v.1.15,2013-07-19 06:12:00,
2013-07-19 02:14:00,78.0,73.1,29.83,WNW,299,1.0,2.0,85,0.00,,,0.00,Wunderground v.1.15,2013-07-19 06:14:00,
2013-07-19 02:16:00,78.0,73.1,29.83,WNW,299,0.0,2.0,85,0.00,,,0.00,Wunderground v.1.15,2013-07-19 06:16:00,
2013-07-19 02:17:00,78.0,73.1,29.83,NW,323,7.0,7.0,85,0.00,,,0.00,Wunderground v.1.15,2013-07-19 06:17:00,
2013-07-19 02:20:00,77.9,73.0,29.83,NW,326,0.0,0.0,85,0.00,,,0.00,Wunderground v.1.15,2013-07-19 06:20:00,
2013-07-19 02:21:00,77.9,73.0,29.83,NW,326,0.0,0.0,85,0.00,,,0.00,Wunderground v.1.15,2013-07-19 06:21:00,
2013-07-19 02:22:00,77.9,73.0,29.83,NW,326,1.0,2.0,85,0.00,,,0.00,Wunderground v.1.15,2013-07-19 06:22:00,
2013-07-19 02:25:00,77.8,72.9,29.83,NW,322,0.0,5.0,85,0.00,,,0.00,Wunderground v.1.15,2013-07-19 06:25:00,
2013-07-19 02:26:00,77.8,72.9,29.83,NW,322,0.0,5.0,85,0.00,,,0.00,Wunderground v.1.15,2013-07-19 06:26:00,
2013-07-19 02:27:00,77.8,72.9,29.83,NW,322,0.0,5.0,85,0.00,,,0.00,Wunderground v.1.15,2013-07-19 06:27:00,
2013-07-19 02:30:00,77.8,72.9,29.83,NW,321,1.0,2.0,85,0.00,,,0.00,Wunderground v.1.15,2013-07-19 06:30:00,
2013-07-19 02:31:00,77.8,72.9,29.83,NW,304,6.0,6.0,85,0.00,,,0.00,Wunderground v.1.15,2013-07-19 06:31:00,
2013-07-19 02:32:00,77.8,72.9,29.82,NW,304,5.0,6.0,85,0.00,,,0.00,Wunderground v.1.15,2013-07-19 06:32:00,
2013-07-19 02:35:00,77.8,72.9,29.82,WNW,299,1.0,6.0,85,0.00,,,0.00,Wunderground v.1.15,2013-07-19 06:35:00,
2013-07-19 02:36:00,77.9,73.0,29.82,WNW,299,0.0,6.0,85,0.00,,,0.00,Wunderground v.1.15,2013-07-19 06:36:00,
2013-07-19 02:37:00,77.8,72.9,29.82,WNW,299,0.0,6.0,85,0.00,,,0.00,Wunderground v.1.15,2013-07-19 06:37:00,
2013-07-19 02:38:00,77.9,73.0,29.82,WNW,299,0.0,6.0,85,0.00,,,0.00,Wunderground v.1.15,2013-07-19 06:38:00,
2013-07-19 02:40:00,77.9,72.7,29.82,WNW,303,0.0,5.0,84,0.00,,,0.00,Wunderground v.1.15,2013-07-19 06:40:00,
2013-07-19 02:42:00,77.9,72.7,29.82,WNW,303,0.0,5.0,84,0.00,,,0.00,Wunderground v.1.15,2013-07-19 06:42:00,
2013-07-19 02:43:00,77.9,72.7,29.82,WNW,296,4.0,6.0,84,0.00,,,0.00,Wunderground v.1.15,2013-07-19 06:43:00,
2013-07-19 02:46:00,77.9,72.7,29.82,WNW,297,1.0,6.0,84,0.00,,,0.00,Wunderground v.1.15,2013-07-19 06:46:00,
2013-07-19 02:47:00,77.9,72.7,29.82,WNW,297,4.0,6.0,84,0.00,,,0.00,Wunderground v.1.15,2013-07-19 06:47:00,
2013-07-19 02:48:00,77.9,72.7,29.82,WNW,297,0.0,6.0,84,0.00,,,0.00,Wunderground v.1.15,2013-07-19 06:48:00,
2013-07-19 02:52:00,77.8,72.6,29.82,WNW,296,0.0,1.0,84,0.00,,,0.00,Wunderground v.1.15,2013-07-19 06:52:00,
2013-07-19 02:53:00,77.8,72.6,29.82,WNW,297,0.0,1.0,84,0.00,,,0.00,Wunderground v.1.15,2013-07-19 06:53:00,
2013-07-19 02:54:00,77.8,72.6,29.82,WNW,291,4.0,4.0,84,0.00,,,0.00,Wunderground v.1.15,2013-07-19 06:54:00,
2013-07-19 02:57:00,77.8,72.6,29.82,West,269,3.0,7.0,84,0.00,,,0.00,Wunderground v.1.15,2013-07-19 06:57:00,
2013-07-19 02:58:00,77.8,72.6,29.82,West,269,3.0,7.0,84,0.00,,,0.00,Wunderground v.1.15,2013-07-19 06:58:00,
2013-07-19 02:59:00,77.8,72.6,29.82,West,269,3.0,7.0,84,0.00,,,0.00,Wunderground v.1.15,2013-07-19 06:59:00,
2013-07-19 03:02:00,77.7,72.8,29.81,West,259,2.0,3.0,85,0.00,,,0.00,Wunderground v.1.15,2013-07-19 07:02:00,
2013-07-19 03:03:00,77.7,72.8,29.81,West,260,0.0,4.0,85,0.00,,,0.00,Wunderground v.1.15,2013-07-19 07:03:00,
2013-07-19 03:04:00,77.7,72.8,29.81,West,260,2.0,4.0,85,0.00,,,0.00,Wunderground v.1.15,2013-07-19 07:04:00,
2013-07-19 03:07:00,77.6,72.7,29.81,West,260,1.0,4.0,85,0.00,,,0.00,Wunderground v.1.15,2013-07-19 07:07:00,
2013-07-19 03:08:00,77.6,72.7,29.81,West,260,4.0,4.0,85,0.00,,,0.00,Wunderground v.1.15,2013-07-19 07:08:00,
2013-07-19 03:09:00,77.6,72.7,29.81,West,260,1.0,2.0,85,0.00,,,0.00,Wunderground v.1.15,2013-07-19 07:09:00,
2013-07-19 03:10:00,77.6,72.7,29.81,West,260,1.0,2.0,85,0.00,,,0.00,Wunderground v.1.15,2013-07-19 07:10:00,
2013-07-19 03:13:00,77.5,72.6,29.81,NW,308,0.0,6.0,85,0.00,,,0.00,Wunderground v.1.15,2013-07-19 07:13:00,
2013-07-19 03:14:00,77.5,72.6,29.81,West,259,2.0,6.0,85,0.00,,,0.00,Wunderground v.1.15,2013-07-19 07:14:00,
2013-07-19 03:15:00,77.5,72.6,29.81,WNW,302,3.0,6.0,85,0.00,,,0.00,Wunderground v.1.15,2013-07-19 07:15:00,
2013-07-19 03:18:00,77.5,72.6,29.80,West,275,1.0,6.0,85,0.00,,,0.00,Wunderground v.1.15,2013-07-19 07:18:00,
2013-07-19 03:19:00,77.5,72.6,29.80,WNW,293,4.0,8.0,85,0.00,,,0.00,Wunderground v.1.15,2013-07-19 07:19:00,
2013-07-19 03:20:00,77.5,72.6,29.80,WNW,294,0.0,2.0,85,0.00,,,0.00,Wunderground v.1.15,2013-07-19 07:20:00,
2013-07-19 03:23:00,77.5,72.6,29.80,WNW,294,2.0,5.0,85,0.00,,,0.00,Wunderground v.1.15,2013-07-19 07:23:00,
2013-07-19 03:24:00,77.5,72.6,29.80,WNW,294,1.0,5.0,85,0.00,,,0.00,Wunderground v.1.15,2013-07-19 07:24:00,
2013-07-19 03:25:00,77.5,72.6,29.80,WNW,294,0.0,5.0,85,0.00,,,0.00,Wunderground v.1.15,2013-07-19 07:25:00,
2013-07-19 03:28:00,77.4,72.5,29.80,WNW,294,0.0,5.0,85,0.00,,,0.00,Wunderground v.1.15,2013-07-19 07:28:00,
2013-07-19 03:29:00,77.4,72.5,29.80,WNW,294,0.0,5.0,85,0.00,,,0.00,Wunderground v.1.15,2013-07-19 07:29:00,
2013-07-19 03:30:00,77.4,72.5,29.80,WNW,292,0.0,3.0,85,0.00,,,0.00,Wunderground v.1.15,2013-07-19 07:30:00,
2013-07-19 03:33:00,77.4,72.5,29.80,West,277,0.0,8.0,85,0.00,,,0.00,Wunderground v.1.15,2013-07-19 07:33:00,
2013-07-19 03:34:00,77.4,72.5,29.80,West,277,0.0,8.0,85,0.00,,,0.00,Wunderground v.1.15,2013-07-19 07:34:00,
2013-07-19 03:35:00,77.4,72.5,29.80,West,277,0.0,8.0,85,0.00,,,0.00,Wunderground v.1.15,2013-07-19 07:35:00,
2013-07-19 03:38:00,77.3,72.4,29.80,West,268,2.0,8.0,85,0.00,,,0.00,Wunderground v.1.15,2013-07-19 07:38:00,
2013-07-19 03:39:00,77.3,72.4,29.80,West,279,2.0,2.0,85,0.00,,,0.00,Wunderground v.1.15,2013-07-19 07:39:00,
2013-07-19 03:40:00,77.3,72.4,29.80,NW,318,0.0,6.0,85,0.00,,,0.00,Wunderground v.1.15,2013-07-19 07:40:00,
2013-07-19 03:41:00,77.3,72.4,29.80,NW,317,0.0,6.0,85,0.00,,,0.00,Wunderground v.1.15,2013-07-19 07:41:00,
2013-07-19 03:44:00,77.3,72.4,29.80,NW,306,2.0,6.0,85,0.00,,,0.00,Wunderground v.1.15,2013-07-19 07:44:00,
2013-07-19 03:45:00,77.3,72.4,29.80,NW,306,0.0,6.0,85,0.00,,,0.00,Wunderground v.1.15,2013-07-19 07:45:00,
2013-07-19 03:46:00,77.3,72.4,29.80,NW,306,0.0,6.0,85,0.00,,,0.00,Wunderground v.1.15,2013-07-19 07:46:00,
2013-07-19 03:49:00,77.2,72.3,29.80,NW,306,0.0,6.0,85,0.00,,,0.00,Wunderground v.1.15,2013-07-19 07:49:00,
2013-07-19 03:50:00,77.3,72.4,29.80,NW,306,2.0,4.0,85,0.00,,,0.00,Wunderground v.1.15,2013-07-19 07:50:00,
2013-07-19 03:51:00,77.2,72.3,29.80,NW,306,0.0,4.0,85,0.00,,,0.00,Wunderground v.1.15,2013-07-19 07:51:00,
2013-07-19 03:54:00,77.2,72.3,29.80,NW,306,2.0,4.0,85,0.00,,,0.00,Wunderground v.1.15,2013-07-19 07:54:00,
2013-07-19 03:55:00,77.2,72.3,29.80,NW,306,1.0,4.0,85,0.00,,,0.00,Wunderground v.1.15,2013-07-19 07:55:00,
2013-07-19 03:56:00,77.2,72.3,29.80,NW,306,0.0,4.0,85,0.00,,,0.00,Wunderground v.1.15,2013-07-19 07:56:00,
2013-07-19 03:59:00,77.1,72.2,29.80,NW,306,1.0,4.0,85,0.00,,,0.00,Wunderground v.1.15,2013-07-19 07:59:00,
2013-07-19 04:00:00,77.1,72.2,29.80,NW,306,2.0,2.0,85,0.00,,,0.00,Wunderground v.1.15,2013-07-19 08:00:00,
2013-07-19 04:01:00,77.1,72.2,29.80,NW,306,2.0,5.0,85,0.00,,,0.00,Wunderground v.1.15,2013-07-19 08:01:00,
2013-07-19 04:02:00,77.1,72.2,29.79,NW,306,1.0,5.0,85,0.00,,,0.00,Wunderground v.1.15,2013-07-19 08:02:00,
2013-07-19 04:04:00,77.1,72.2,29.79,NW,306,0.0,5.0,85,0.00,,,0.00,Wunderground v.1.15,2013-07-19 08:04:00,
2013-07-19 04:05:00,77.1,72.2,29.79,NW,306,0.0,5.0,85,0.00,,,0.00,Wunderground v.1.15,2013-07-19 08:05:00,
2013-07-19 04:06:00,77.1,72.2,29.79,NW,306,2.0,5.0,85,0.00,,,0.00,Wunderground v.1.15,2013-07-19 08:06:00,
2013-07-19 04:07:00,77.1,72.2,29.79,NW,306,3.0,5.0,85,0.00,,,0.00,Wunderground v.1.15,2013-07-19 08:07:00,
2013-07-19 04:09:00,77.0,72.1,29.79,NW,306,0.0,1.0,85,0.00,,,0.00,Wunderground v.1.15,2013-07-19 08:09:00,
2013-07-19 04:10:00,77.0,72.1,29.79,NW,306,0.0,1.0,85,0.00,,,0.00,Wunderground v.1.15,2013-07-19 08:10:00,
2013-07-19 04:11:00,77.0,72.1,29.79,NW,306,0.0,1.0,85,0.00,,,0.00,Wunderground v.1.15,2013-07-19 08:11:00,
2013-07-19 04:12:00,77.0,72.1,29.79,NW,306,0.0,2.0,85,0.00,,,0.00,Wunderground v.1.15,2013-07-19 08:12:00,
2013-07-19 04:15:00,76.9,72.4,29.79,WNW,290,2.0,5.0,86,0.00,,,0.00,Wunderground v.1.15,2013-07-19 08:15:00,
2013-07-19 04:16:00,76.9,72.4,29.79,WNW,301,3.0,5.0,86,0.00,,,0.00,Wunderground v.1.15,2013-07-19 08:16:00,
2013-07-19 04:17:00,76.9,72.4,29.79,NW,306,4.0,7.0,86,0.00,,,0.00,Wunderground v.1.15,2013-07-19 08:17:00,
2013-07-19 04:20:00,76.9,72.4,29.79,WNW,293,2.0,2.0,86,0.00,,,0.00,Wunderground v.1.15,2013-07-19 08:20:00,
2013-07-19 04:21:00,76.9,72.4,29.79,WNW,293,2.0,4.0,86,0.00,,,0.00,Wunderground v.1.15,2013-07-19 08:21:00,
2013-07-19 04:22:00,76.9,72.4,29.79,WNW,293,1.0,4.0,86,0.00,,,0.00,Wunderground v.1.15,2013-07-19 08:22:00,
2013-07-19 04:25:00,76.8,72.3,29.79,WNW,292,0.0,4.0,86,0.00,,,0.00,Wunderground v.1.15,2013-07-19 08:25:00,
2013-07-19 04:26:00,76.8,72.3,29.79,WNW,292,1.0,4.0,86,0.00,,,0.00,Wunderground v.1.15,2013-07-19 08:26:00,
2013-07-19 04:27:00,76.8,72.3,29.79,WNW,293,0.0,4.0,86,0.00,,,0.00,Wunderground v.1.15,2013-07-19 08:27:00,
2013-07-19 04:28:00,76.8,72.3,29.79,WNW,293,1.0,4.0,86,0.00,,,0.00,Wunderground v.1.15,2013-07-19 08:28:00,
2013-07-19 04:30:00,76.7,72.2,29.79,WNW,293,1.0,2.0,86,0.00,,,0.00,Wunderground v.1.15,2013-07-19 08:30:00,
2013-07-19 04:31:00,76.7,72.2,29.79,WNW,293,0.0,2.0,86,0.00,,,0.00,Wunderground v.1.15,2013-07-19 08:31:00,
2013-07-19 04:32:00,76.7,72.2,29.79,WNW,293,0.0,2.0,86,0.00,,,0.00,Wunderground v.1.15,2013-07-19 08:32:00,
2013-07-19 04:33:00,76.7,72.2,29.79,WNW,292,1.0,5.0,86,0.00,,,0.00,Wunderground v.1.15,2013-07-19 08:33:00,
2013-07-19 04:35:00,76.7,72.2,29.79,WNW,292,1.0,5.0,86,0.00,,,0.00,Wunderground v.1.15,2013-07-19 08:35:00,
2013-07-19 04:37:00,76.7,72.2,29.79,WNW,292,0.0,5.0,86,0.00,,,0.00,Wunderground v.1.15,2013-07-19 08:37:00,
2013-07-19 04:38:00,76.7,72.2,29.79,WNW,292,4.0,5.0,86,0.00,,,0.00,Wunderground v.1.15,2013-07-19 08:38:00,
2013-07-19 04:40:00,76.6,72.1,29.79,WNW,292,0.0,1.0,86,0.00,,,0.00,Wunderground v.1.15,2013-07-19 08:40:00,
2013-07-19 04:42:00,76.6,72.4,29.79,WNW,291,4.0,4.0,87,0.00,,,0.00,Wunderground v.1.15,2013-07-19 08:42:00,
2013-07-19 04:43:00,76.6,72.4,29.79,WNW,292,0.0,4.0,87,0.00,,,0.00,Wunderground v.1.15,2013-07-19 08:43:00,
2013-07-19 04:45:00,76.5,72.3,29.79,WNW,291,0.0,4.0,87,0.00,,,0.00,Wunderground v.1.15,2013-07-19 08:45:00,
2013-07-19 04:47:00,76.5,72.3,29.79,WNW,291,0.0,4.0,87,0.00,,,0.00,Wunderground v.1.15,2013-07-19 08:47:00,
2013-07-19 04:48:00,76.5,72.3,29.79,WNW,291,0.0,4.0,87,0.00,,,0.00,Wunderground v.1.15,2013-07-19 08:48:00,
2013-07-19 04:49:00,76.5,72.3,29.79,WNW,291,0.0,4.0,87,0.00,,,0.00,Wunderground v.1.15,2013-07-19 08:49:00,
2013-07-19 04:50:00,76.5,72.3,29.79,WNW,292,0.0,2.0,87,0.00,,,0.00,Wunderground v.1.15,2013-07-19 08:50:00,
2013-07-19 04:52:00,76.5,72.3,29.79,WNW,292,0.0,2.0,87,0.00,,,0.00,Wunderground v.1.15,2013-07-19 08:52:00,
2013-07-19 04:53:00,76.5,72.3,29.79,WNW,292,0.0,2.0,87,0.00,,,0.00,Wunderground v.1.15,2013-07-19 08:53:00,
2013-07-19 04:54:00,76.4,72.2,29.79,WNW,292,2.0,5.0,87,0.00,,,0.00,Wunderground v.1.15,2013-07-19 08:54:00,
2013-07-19 04:55:00,76.4,72.2,29.79,WNW,291,1.0,5.0,87,0.00,,,0.00,Wunderground v.1.15,2013-07-19 08:55:00,
2013-07-19 04:57:00,76.4,72.2,29.79,WNW,295,0.0,5.0,87,0.00,,,0.00,Wunderground v.1.15,2013-07-19 08:57:00,
2013-07-19 04:58:00,76.4,72.2,29.79,WNW,295,0.0,5.0,87,0.00,,,0.00,Wunderground v.1.15,2013-07-19 08:58:00,
2013-07-19 04:59:00,76.4,72.2,29.79,WNW,291,1.0,5.0,87,0.00,,,0.00,Wunderground v.1.15,2013-07-19 08:59:00,
2013-07-19 05:00:00,76.3,72.1,29.79,WNW,291,1.0,3.0,87,0.00,,,0.00,Wunderground v.1.15,2013-07-19 09:00:00,
2013-07-19 05:01:00,76.3,72.1,29.79,WNW,291,0.0,5.0,87,0.00,,,0.00,Wunderground v.1.15,2013-07-19 09:01:00,
2013-07-19 05:02:00,76.3,72.1,29.78,WNW,291,0.0,5.0,87,0.00,,,0.00,Wunderground v.1.15,2013-07-19 09:02:00,
2013-07-19 05:03:00,76.3,72.1,29.78,WNW,291,0.0,5.0,87,0.00,,,0.00,Wunderground v.1.15,2013-07-19 09:03:00,
2013-07-19 05:04:00,76.3,72.1,29.78,WNW,291,0.0,5.0,87,0.00,,,0.00,Wunderground v.1.15,2013-07-19 09:04:00,
2013-07-19 05:05:00,76.3,72.1,29.78,WNW,291,0.0,5.0,87,0.00,,,0.00,Wunderground v.1.15,2013-07-19 09:05:00,
2013-07-19 05:06:00,76.3,72.1,29.78,WNW,291,0.0,5.0,87,0.00,,,0.00,Wunderground v.1.15,2013-07-19 09:06:00,
2013-07-19 05:08:00,76.3,72.1,29.78,WNW,285,0.0,5.0,87,0.00,,,0.00,Wunderground v.1.15,2013-07-19 09:08:00,
2013-07-19 05:09:00,76.2,72.0,29.78,WNW,285,0.0,5.0,87,0.00,,,0.00,Wunderground v.1.15,2013-07-19 09:09:00,
2013-07-19 05:10:00,76.2,72.4,29.78,WNW,284,0.0,4.0,88,0.00,,,0.00,Wunderground v.1.15,2013-07-19 09:10:00,
2013-07-19 05:11:00,76.2,72.0,29.78,WNW,284,1.0,4.0,87,0.00,,,0.00,Wunderground v.1.15,2013-07-19 09:11:00,
2013-07-19 05:13:00,76.2,72.0,29.78,WNW,284,0.0,4.0,87,0.00,,,0.00,Wunderground v.1.15,2013-07-19 09:13:00,
2013-07-19 05:14:00,76.1,72.3,29.78,WNW,284,0.0,4.0,88,0.00,,,0.00,Wunderground v.1.15,2013-07-19 09:14:00,
2013-07-19 05:15:00,76.1,72.3,29.78,WNW,284,0.0,4.0,88,0.00,,,0.00,Wunderground v.1.15,2013-07-19 09:15:00,
2013-07-19 05:16:00,76.1,72.3,29.78,WNW,284,0.0,4.0,88,0.00,,,0.00,Wunderground v.1.15,2013-07-19 09:16:00,
2013-07-19 05:18:00,76.0,72.2,29.78,West,280,1.0,4.0,88,0.00,,,0.00,Wunderground v.1.15,2013-07-19 09:18:00,
2013-07-19 05:19:00,76.0,72.2,29.78,West,280,0.0,4.0,88,0.00,,,0.00,Wunderground v.1.15,2013-07-19 09:19:00,
2013-07-19 05:20:00,76.0,72.2,29.78,West,280,0.0,2.0,88,0.00,,,0.00,Wunderground v.1.15,2013-07-19 09:20:00,
2013-07-19 05:22:00,76.0,72.2,29.78,West,280,0.0,2.0,88,0.00,,,0.00,Wunderground v.1.15,2013-07-19 09:22:00,
2013-07-19 05:23:00,76.0,72.2,29.78,West,280,0.0,2.0,88,0.00,,,0.00,Wunderground v.1.15,2013-07-19 09:23:00,
2013-07-19 05:24:00,76.0,72.2,29.78,West,280,0.0,2.0,88,0.00,,,0.00,Wunderground v.1.15,2013-07-19 09:24:00,
2013-07-19 05:26:00,75.9,72.1,29.78,West,280,0.0,2.0,88,0.00,,,0.00,Wunderground v.1.15,2013-07-19 09:26:00,
2013-07-19 05:27:00,75.9,72.1,29.78,West,280,0.0,2.0,88,0.00,,,0.00,Wunderground v.1.15,2013-07-19 09:27:00,
2013-07-19 05:29:00,75.9,72.1,29.78,West,280,1.0,4.0,88,0.00,,,0.00,Wunderground v.1.15,2013-07-19 09:29:00,
2013-07-19 05:31:00,75.8,72.0,29.78,West,280,0.0,2.0,88,0.00,,,0.00,Wunderground v.1.15,2013-07-19 09:31:00,
2013-07-19 05:33:00,75.7,72.2,29.78,West,279,0.0,2.0,89,0.00,,,0.00,Wunderground v.1.15,2013-07-19 09:33:00,
2013-07-19 05:34:00,75.7,72.2,29.78,West,279,0.0,2.0,89,0.00,,,0.00,Wunderground v.1.15,2013-07-19 09:34:00,
2013-07-19 05:36:00,75.7,72.2,29.78,West,279,1.0,4.0,89,0.00,,,0.00,Wunderground v.1.15,2013-07-19 09:36:00,
2013-07-19 05:38:00,75.7,72.2,29.78,West,279,1.0,4.0,89,0.00,,,0.00,Wunderground v.1.15,2013-07-19 09:38:00,
2013-07-19 05:39:00,75.6,72.1,29.78,West,277,6.0,6.0,89,0.00,,,0.00,Wunderground v.1.15,2013-07-19 09:39:00,
2013-07-19 05:40:00,75.6,72.1,29.78,WNW,284,5.0,6.0,89,0.00,,,0.00,Wunderground v.1.15,2013-07-19 09:40:00,
2013-07-19 05:42:00,75.6,72.1,29.78,WNW,295,0.0,7.0,89,0.00,,,0.00,Wunderground v.1.15,2013-07-19 09:42:00,
2013-07-19 05:44:00,75.6,72.1,29.78,WNW,295,0.0,7.0,89,0.00,,,0.00,Wunderground v.1.15,2013-07-19 09:44:00,
2013-07-19 05:45:00,75.6,72.1,29.78,WNW,294,0.0,7.0,89,0.00,,,0.00,Wunderground v.1.15,2013-07-19 09:45:00,
2013-07-19 05:47:00,75.6,72.1,29.77,WNW,294,0.0,7.0,89,0.00,,,0.00,Wunderground v.1.15,2013-07-19 09:47:00,
2013-07-19 05:49:00,75.5,72.0,29.77,WNW,294,0.0,1.0,89,0.00,,,0.00,Wunderground v.1.15,2013-07-19 09:49:00,
2013-07-19 05:50:00,75.5,72.0,29.77,WNW,294,0.0,1.0,89,0.00,,,0.00,Wunderground v.1.15,2013-07-19 09:50:00,
2013-07-19 05:51:00,75.5,72.0,29.77,WNW,294,0.0,1.0,89,0.00,,,0.00,Wunderground v.1.15,2013-07-19 09:51:00,
2013-07-19 05:52:00,75.5,72.0,29.77,WNW,294,0.0,1.0,89,0.00,,,0.00,Wunderground v.1.15,2013-07-19 09:52:00,
2013-07-19 05:54:00,75.5,72.0,29.77,WNW,292,2.0,5.0,89,0.00,,,0.00,Wunderground v.1.15,2013-07-19 09:54:00,
2013-07-19 05:55:00,75.5,72.0,29.77,WNW,291,0.0,5.0,89,0.00,,,0.00,Wunderground v.1.15,2013-07-19 09:55:00,
2013-07-19 05:56:00,75.5,72.0,29.77,WNW,291,0.0,5.0,89,0.00,,,0.00,Wunderground v.1.15,2013-07-19 09:56:00,
2013-07-19 05:57:00,75.5,72.0,29.77,WNW,292,0.0,5.0,89,0.00,,,0.00,Wunderground v.1.15,2013-07-19 09:57:00,
2013-07-19 06:00:00,75.5,72.0,29.77,WNW,287,0.0,5.0,89,0.00,,,0.00,Wunderground v.1.15,2013-07-19 10:00:00,
2013-07-19 06:01:00,75.4,71.9,29.77,WNW,287,1.0,5.0,89,0.00,,,0.00,Wunderground v.1.15,2013-07-19 10:01:00,
2013-07-19 06:02:00,75.4,71.9,29.78,WNW,287,1.0,5.0,89,0.00,,,0.00,Wunderground v.1.15,2013-07-19 10:02:00,
2013-07-19 06:05:00,75.4,71.9,29.78,WNW,288,0.0,5.0,89,0.00,,,0.00,Wunderground v.1.15,2013-07-19 10:05:00,
2013-07-19 06:06:00,75.3,72.2,29.78,WNW,287,1.0,5.0,90,0.00,,,0.00,Wunderground v.1.15,2013-07-19 10:06:00,
2013-07-19 06:07:00,75.3,72.2,29.78,WNW,287,0.0,5.0,90,0.00,,,0.00,Wunderground v.1.15,2013-07-19 10:07:00,
2013-07-19 06:11:00,75.3,72.2,29.78,WNW,287,0.0,1.0,90,0.00,,,0.00,Wunderground v.1.15,2013-07-19 10:11:00,
2013-07-19 06:12:00,75.3,72.2,29.78,WNW,287,0.0,1.0,90,0.00,,,0.00,Wunderground v.1.15,2013-07-19 10:12:00,
2013-07-19 06:16:00,75.2,72.1,29.78,WNW,287,0.0,1.0,90,0.00,,,0.00,Wunderground v.1.15,2013-07-19 10:16:00,
2013-07-19 06:17:00,75.2,72.1,29.78,WNW,287,0.0,1.0,90,0.00,,,0.00,Wunderground v.1.15,2013-07-19 10:17:00,
2013-07-19 06:18:00,75.2,72.1,29.78,WNW,287,0.0,1.0,90,0.00,,,0.00,Wunderground v.1.15,2013-07-19 10:18:00,
2013-07-19 06:21:00,75.2,72.1,29.78,WNW,287,0.0,0.0,90,0.00,,,0.00,Wunderground v.1.15,2013-07-19 10:21:00,
2013-07-19 06:22:00,75.1,72.0,29.78,WNW,287,0.0,0.0,90,0.00,,,0.00,Wunderground v.1.15,2013-07-19 10:22:00,
2013-07-19 06:23:00,75.1,72.0,29.78,WNW,287,0.0,0.0,90,0.00,,,0.00,Wunderground v.1.15,2013-07-19 10:23:00,
2013-07-19 06:26:00,75.0,71.9,29.78,WNW,288,0.0,4.0,90,0.00,,,0.00,Wunderground v.1.15,2013-07-19 10:26:00,
2013-07-19 06:27:00,75.0,71.9,29.78,WNW,288,0.0,4.0,90,0.00,,,0.00,Wunderground v.1.15,2013-07-19 10:27:00,
2013-07-19 06:28:00,75.0,71.9,29.78,WNW,287,0.0,4.0,90,0.00,,,0.00,Wunderground v.1.15,2013-07-19 10:28:00,
2013-07-19 06:31:00,75.0,72.2,29.78,WNW,287,0.0,1.0,91,0.00,,,0.00,Wunderground v.1.15,2013-07-19 10:31:00,
2013-07-19 06:32:00,75.0,72.2,29.78,WNW,287,0.0,1.0,91,0.00,,,0.00,Wunderground v.1.15,2013-07-19 10:32:00,
2013-07-19 06:33:00,75.0,72.2,29.78,WNW,287,0.0,1.0,91,0.00,,,0.00,Wunderground v.1.15,2013-07-19 10:33:00,
2013-07-19 06:36:00,75.0,72.2,29.78,WNW,287,0.0,2.0,91,0.00,,,0.00,Wunderground v.1.15,2013-07-19 10:36:00,
2013-07-19 06:37:00,75.0,72.2,29.78,WNW,287,0.0,2.0,91,0.00,,,0.00,Wunderground v.1.15,2013-07-19 10:37:00,
2013-07-19 06:39:00,75.0,72.2,29.78,WNW,300,0.0,7.0,91,0.00,,,0.00,Wunderground v.1.15,2013-07-19 10:39:00,
2013-07-19 06:41:00,75.0,72.2,29.78,NW,306,1.0,6.0,91,0.00,,,0.00,Wunderground v.1.15,2013-07-19 10:41:00,
2013-07-19 06:42:00,75.1,72.3,29.78,NW,306,0.0,6.0,91,0.00,,,0.00,Wunderground v.1.15,2013-07-19 10:42:00,
2013-07-19 06:44:00,75.1,72.3,29.78,NW,307,1.0,6.0,91,0.00,,,0.00,Wunderground v.1.15,2013-07-19 10:44:00,
2013-07-19 06:46:00,75.1,72.3,29.78,NW,307,0.0,6.0,91,0.00,,,0.00,Wunderground v.1.15,2013-07-19 10:46:00,
2013-07-19 06:47:00,75.2,72.4,29.79,West,264,2.0,6.0,91,0.00,,,0.00,Wunderground v.1.15,2013-07-19 10:47:00,
2013-07-19 06:48:00,75.2,72.4,29.79,West,266,0.0,6.0,91,0.00,,,0.00,Wunderground v.1.15,2013-07-19 10:48:00,
2013-07-19 06:49:00,75.2,72.4,29.79,West,266,0.0,6.0,91,0.00,,,0.00,Wunderground v.1.15,2013-07-19 10:49:00,
2013-07-19 06:52:00,75.3,72.2,29.79,West,267,0.0,5.0,90,0.00,,,0.00,Wunderground v.1.15,2013-07-19 10:52:00,
2013-07-19 06:53:00,75.4,72.3,29.79,West,267,4.0,5.0,90,0.00,,,0.00,Wunderground v.1.15,2013-07-19 10:53:00,
2013-07-19 06:54:00,75.4,72.3,29.79,West,267,0.0,5.0,90,0.00,,,0.00,Wunderground v.1.15,2013-07-19 10:54:00,
2013-07-19 06:57:00,75.5,72.4,29.79,WNW,292,1.0,5.0,90,0.00,,,0.00,Wunderground v.1.15,2013-07-19 10:57:00,
2013-07-19 06:58:00,75.5,72.4,29.79,WNW,292,0.0,5.0,90,0.00,,,0.00,Wunderground v.1.15,2013-07-19 10:58:00,
2013-07-19 07:00:00,75.6,72.5,29.79,WNW,292,0.0,1.0,90,0.00,,,0.00,Wunderground v.1.15,2013-07-19 11:00:00,
2013-07-19 07:02:00,75.7,72.6,29.79,West,279,2.0,7.0,90,0.00,,,0.00,Wunderground v.1.15,2013-07-19 11:02:00,
2013-07-19 07:03:00,75.7,72.6,29.79,West,279,1.0,7.0,90,0.00,,,0.00,Wunderground v.1.15,2013-07-19 11:03:00,
2013-07-19 07:04:00,75.7,72.6,29.79,West,281,1.0,7.0,90,0.00,,,0.00,Wunderground v.1.15,2013-07-19 11:04:00,
2013-07-19 07:05:00,75.9,72.8,29.79,WNW,283,0.0,7.0,90,0.00,,,0.00,Wunderground v.1.15,2013-07-19 11:05:00,
2013-07-19 07:07:00,75.9,72.8,29.79,WNW,283,0.0,7.0,90,0.00,,,0.00,Wunderground v.1.15,2013-07-19 11:07:00,
2013-07-19 07:08:00,76.0,72.5,29.79,WNW,288,4.0,7.0,89,0.00,,,0.00,Wunderground v.1.15,2013-07-19 11:08:00,
2013-07-19 07:09:00,76.1,72.6,29.79,WNW,288,0.0,7.0,89,0.00,,,0.00,Wunderground v.1.15,2013-07-19 11:09:00,
2013-07-19 07:10:00,76.2,72.7,29.79,NNW,344,0.0,3.0,89,0.00,,,0.00,Wunderground v.1.15,2013-07-19 11:10:00,
2013-07-19 07:12:00,76.2,72.7,29.79,NW,317,6.0,8.0,89,0.00,,,0.00,Wunderground v.1.15,2013-07-19 11:12:00,
2013-07-19 07:13:00,76.2,72.7,29.79,NW,317,6.0,8.0,89,0.00,,,0.00,Wunderground v.1.15,2013-07-19 11:13:00,
2013-07-19 07:14:00,76.3,72.8,29.79,NW,308,0.0,8.0,89,0.00,,,0.00,Wunderground v.1.15,2013-07-19 11:14:00,
2013-07-19 07:16:00,76.4,72.9,29.79,WNW,296,0.0,8.0,89,0.00,,,0.00,Wunderground v.1.15,2013-07-19 11:16:00,
2013-07-19 07:17:00,76.5,72.7,29.78,WNW,290,0.0,9.0,88,0.00,,,0.00,Wunderground v.1.15,2013-07-19 11:17:00,
2013-07-19 07:18:00,76.5,72.7,29.78,WNW,290,0.0,9.0,88,0.00,,,0.00,Wunderground v.1.15,2013-07-19 11:18:00,
2013-07-19 07:19:00,76.6,72.8,29.78,WNW,287,0.0,9.0,88,0.00,,,0.00,Wunderground v.1.15,2013-07-19 11:19:00,
2013-07-19 07:21:00,76.7,72.9,29.78,WNW,287,0.0,1.0,88,0.00,,,0.00,Wunderground v.1.15,2013-07-19 11:21:00,
2013-07-19 07:22:00,76.9,73.1,29.78,WNW,299,0.0,3.0,88,0.00,,,0.00,Wunderground v.1.15,2013-07-19 11:22:00,
2013-07-19 07:23:00,76.9,73.1,29.78,WNW,299,0.0,3.0,88,0.00,,,0.00,Wunderground v.1.15,2013-07-19 11:23:00,
2013-07-19 07:24:00,76.9,73.1,29.78,WNW,299,0.0,3.0,88,0.00,,,0.00,Wunderground v.1.15,2013-07-19 11:24:00,
2013-07-19 07:25:00,77.0,72.8,29.78,NW,304,0.0,3.0,87,0.00,,,0.00,Wunderground v.1.15,2013-07-19 11:25:00,
2013-07-19 07:26:00,77.0,72.8,29.78,NW,304,0.0,3.0,87,0.00,,,0.00,Wunderground v.1.15,2013-07-19 11:26:00,
2013-07-19 07:28:00,77.1,72.9,29.78,NW,317,0.0,4.0,87,0.00,,,0.00,Wunderground v.1.15,2013-07-19 11:28:00,
2013-07-19 07:29:00,77.1,72.9,29.78,WNW,300,0.0,8.0,87,0.00,,,0.00,Wunderground v.1.15,2013-07-19 11:29:00,
2013-07-19 07:30:00,77.2,73.0,29.78,WNW,299,0.0,1.0,87,0.00,,,0.00,Wunderground v.1.15,2013-07-19 11:30:00,
2013-07-19 07:31:00,77.2,73.0,29.78,WNW,292,0.0,5.0,87,0.00,,,0.00,Wunderground v.1.15,2013-07-19 11:31:00,
2013-07-19 07:33:00,77.3,73.1,29.78,WNW,289,0.0,5.0,87,0.00,,,0.00,Wunderground v.1.15,2013-07-19 11:33:00,
2013-07-19 07:34:00,77.3,73.1,29.78,WNW,292,1.0,5.0,87,0.00,,,0.00,Wunderground v.1.15,2013-07-19 11:34:00,
2013-07-19 07:35:00,77.4,73.2,29.78,WNW,286,0.0,5.0,87,0.00,,,0.00,Wunderground v.1.15,2013-07-19 11:35:00,
2013-07-19 07:36:00,77.4,73.2,29.78,WNW,302,0.0,5.0,87,0.00,,,0.00,Wunderground v.1.15,2013-07-19 11:36:00,
2013-07-19 07:38:00,77.5,73.0,29.78,NNW,340,4.0,9.0,86,0.00,,,0.00,Wunderground v.1.15,2013-07-19 11:38:00,
2013-07-19 07:39:00,77.6,73.1,29.78,NNW,338,0.0,1.0,86,0.00,,,0.00,Wunderground v.1.15,2013-07-19 11:39:00,
2013-07-19 07:41:00,77.6,73.1,29.78,WNW,288,0.0,1.0,86,0.00,,,0.00,Wunderground v.1.15,2013-07-19 11:41:00,
2013-07-19 07:43:00,77.8,73.3,29.78,WNW,288,0.0,4.0,86,0.00,,,0.00,Wunderground v.1.15,2013-07-19 11:43:00,
2013-07-19 07:44:00,77.8,73.3,29.78,NW,315,3.0,4.0,86,0.00,,,0.00,Wunderground v.1.15,2013-07-19 11:44:00,
2013-07-19 07:45:00,77.9,73.4,29.78,WNW,300,2.0,4.0,86,0.00,,,0.00,Wunderground v.1.15,2013-07-19 11:45:00,
2013-07-19 07:46:00,77.9,73.4,29.78,NNW,340,4.0,6.0,86,0.00,,,0.00,Wunderground v.1.15,2013-07-19 11:46:00,
2013-07-19 07:49:00,78.0,73.1,29.78,WNW,286,0.0,8.0,85,0.00,,,0.00,Wunderground v.1.15,2013-07-19 11:49:00,
2013-07-19 07:50:00,78.1,73.6,29.78,WNW,286,0.0,1.0,86,0.00,,,0.00,Wunderground v.1.15,2013-07-19 11:50:00,
2013-07-19 07:51:00,78.2,73.7,29.78,WNW,286,0.0,1.0,86,0.00,,,0.00,Wunderground v.1.15,2013-07-19 11:51:00,
2013-07-19 07:54:00,78.4,73.5,29.78,WNW,290,0.0,4.0,85,0.00,,,0.00,Wunderground v.1.15,2013-07-19 11:54:00,
2013-07-19 07:56:00,78.5,73.6,29.78,WNW,285,5.0,5.0,85,0.00,,,0.00,Wunderground v.1.15,2013-07-19 11:56:00,
2013-07-19 07:57:00,78.6,73.7,29.78,WNW,290,0.0,7.0,85,0.00,,,0.00,Wunderground v.1.15,2013-07-19 11:57:00,
2013-07-19 07:59:00,78.7,73.5,29.78,NNW,330,0.0,8.0,84,0.00,,,0.00,Wunderground v.1.15,2013-07-19 11:59:00,
2013-07-19 08:01:00,78.8,73.9,29.78,NW,306,0.0,1.0,85,0.00,,,0.00,Wunderground v.1.15,2013-07-19 12:01:00,
2013-07-19 08:03:00,78.9,73.7,29.78,NW,307,3.0,4.0,84,0.00,,,0.00,Wunderground v.1.15,2013-07-19 12:03:00,
2013-07-19 08:04:00,78.9,73.7,29.78,NNW,330,0.0,7.0,84,0.00,,,0.00,Wunderground v.1.15,2013-07-19 12:04:00,
2013-07-19 08:05:00,78.9,73.7,29.78,NNW,331,1.0,7.0,84,0.00,,,0.00,Wunderground v.1.15,2013-07-19 12:05:00,
2013-07-19 08:06:00,79.0,73.7,29.78,NW,309,0.0,7.0,84,0.00,,,0.00,Wunderground v.1.15,2013-07-19 12:06:00,
2013-07-19 08:08:00,79.1,73.8,29.78,NW,306,0.0,7.0,84,0.00,,,0.00,Wunderground v.1.15,2013-07-19 12:08:00,
2013-07-19 08:09:00,79.1,73.8,29.78,NW,311,3.0,7.0,84,0.00,,,0.00,Wunderground v.1.15,2013-07-19 12:09:00,
2013-07-19 08:10:00,79.1,73.8,29.78,WNW,302,6.0,7.0,84,0.00,,,0.00,Wunderground v.1.15,2013-07-19 12:10:00,
2013-07-19 08:11:00,79.2,73.9,29.78,North,5,0.0,10.0,84,0.00,,,0.00,Wunderground v.1.15,2013-07-19 12:11:00,
2013-07-19 08:13:00,79.2,73.9,29.78,WNW,294,0.0,10.0,84,0.00,,,0.00,Wunderground v.1.15,2013-07-19 12:13:00,
2013-07-19 08:15:00,79.3,74.0,29.78,WNW,294,0.0,10.0,84,0.00,,,0.00,Wunderground v.1.15,2013-07-19 12:15:00,
2013-07-19 08:17:00,79.4,74.1,29.78,WNW,295,1.0,11.0,84,0.00,,,0.00,Wunderground v.1.15,2013-07-19 12:17:00,
2013-07-19 08:19:00,79.4,73.8,29.78,West,259,0.0,11.0,83,0.00,,,0.00,Wunderground v.1.15,2013-07-19 12:19:00,
2013-07-19 08:20:00,79.5,74.2,29.78,West,273,1.0,2.0,84,0.00,,,0.00,Wunderground v.1.15,2013-07-19 12:20:00,
2013-07-19 08:22:00,79.6,74.0,29.78,WNW,284,0.0,3.0,83,0.00,,,0.00,Wunderground v.1.15,2013-07-19 12:22:00,
2013-07-19 08:24:00,79.7,74.1,29.78,West,272,8.0,8.0,83,0.00,,,0.00,Wunderground v.1.15,2013-07-19 12:24:00,
2013-07-19 08:25:00,79.7,74.1,29.78,WNW,298,1.0,8.0,83,0.00,,,0.00,Wunderground v.1.15,2013-07-19 12:25:00,
2013-07-19 08:27:00,79.8,74.2,29.78,WNW,298,0.0,8.0,83,0.00,,,0.00,Wunderground v.1.15,2013-07-19 12:27:00,
2013-07-19 08:28:00,79.8,74.2,29.78,WNW,299,0.0,8.0,83,0.00,,,0.00,Wunderground v.1.15,2013-07-19 12:28:00,
2013-07-19 08:29:00,79.9,74.3,29.78,WNW,294,1.0,1.0,83,0.00,,,0.00,Wunderground v.1.15,2013-07-19 12:29:00,
2013-07-19 08:30:00,80.0,74.4,29.78,WNW,299,3.0,5.0,83,0.00,,,0.00,Wunderground v.1.15,2013-07-19 12:30:00,
2013-07-19 08:32:00,80.1,74.1,29.78,NW,311,0.0,7.0,82,0.00,,,0.00,Wunderground v.1.15,2013-07-19 12:32:00,
2013-07-19 08:33:00,80.1,74.1,29.78,WNW,297,4.0,7.0,82,0.00,,,0.00,Wunderground v.1.15,2013-07-19 12:33:00,
2013-07-19 08:34:00,80.2,74.2,29.78,WNW,298,0.0,7.0,82,0.00,,,0.00,Wunderground v.1.15,2013-07-19 12:34:00,
2013-07-19 08:35:00,80.3,74.3,29.78,WNW,298,0.0,7.0,82,0.00,,,0.00,Wunderground v.1.15,2013-07-19 12:35:00,
2013-07-19 08:37:00,80.4,74.4,29.78,NNW,328,0.0,7.0,82,0.00,,,0.00,Wunderground v.1.15,2013-07-19 12:37:00,
2013-07-19 08:38:00,80.5,74.5,29.78,WNW,286,5.0,7.0,82,0.00,,,0.00,Wunderground v.1.15,2013-07-19 12:38:00,
2013-07-19 08:40:00,80.5,74.5,29.78,WNW,295,0.0,1.0,82,0.00,,,0.00,Wunderground v.1.15,2013-07-19 12:40:00,
2013-07-19 08:41:00,80.6,74.2,29.78,NW,310,0.0,5.0,81,0.00,,,0.00,Wunderground v.1.15,2013-07-19 12:41:00,
2013-07-19 08:42:00,80.7,74.3,29.78,WNW,293,0.0,6.0,81,0.00,,,0.00,Wunderground v.1.15,2013-07-19 12:42:00,
2013-07-19 08:43:00,80.7,74.3,29.78,NNW,333,0.0,6.0,81,0.00,,,0.00,Wunderground v.1.15,2013-07-19 12:43:00,
2013-07-19 08:45:00,80.8,74.4,29.78,NW,316,1.0,10.0,81,0.00,,,0.00,Wunderground v.1.15,2013-07-19 12:45:00,
2013-07-19 08:46:00,80.9,74.5,29.78,NW,321,4.0,11.0,81,0.00,,,0.00,Wunderground v.1.15,2013-07-19 12:46:00,
2013-07-19 08:48:00,80.9,74.5,29.78,NW,321,7.0,11.0,81,0.00,,,0.00,Wunderground v.1.15,2013-07-19 12:48:00,
2013-07-19 08:50:00,80.9,74.5,29.78,NNW,344,0.0,4.0,81,0.00,,,0.00,Wunderground v.1.15,2013-07-19 12:50:00,
2013-07-19 08:51:00,81.0,74.6,29.78,North,5,0.0,4.0,81,0.00,,,0.00,Wunderground v.1.15,2013-07-19 12:51:00,
2013-07-19 08:52:00,81.0,74.6,29.78,North,11,0.0,4.0,81,0.00,,,0.00,Wunderground v.1.15,2013-07-19 12:52:00,
2013-07-19 08:53:00,81.1,74.7,29.78,NW,307,4.0,4.0,81,0.00,,,0.00,Wunderground v.1.15,2013-07-19 12:53:00,
2013-07-19 08:55:00,81.2,74.4,29.78,WNW,300,2.0,10.0,80,0.00,,,0.00,Wunderground v.1.15,2013-07-19 12:55:00,
2013-07-19 08:57:00,81.2,74.8,29.78,NW,314,0.0,10.0,81,0.00,,,0.00,Wunderground v.1.15,2013-07-19 12:57:00,
2013-07-19 08:58:00,81.3,74.5,29.78,NW,314,0.0,10.0,80,0.00,,,0.00,Wunderground v.1.15,2013-07-19 12:58:00,
2013-07-19 09:00:00,81.4,74.6,29.78,NW,319,0.0,6.0,80,0.00,,,0.00,Wunderground v.1.15,2013-07-19 13:00:00,
2013-07-19 09:02:00,81.5,74.7,29.78,NNE,17,1.0,6.0,80,0.00,,,0.00,Wunderground v.1.15,2013-07-19 13:02:00,
2013-07-19 09:03:00,81.5,74.7,29.78,NW,307,0.0,6.0,80,0.00,,,0.00,Wunderground v.1.15,2013-07-19 13:03:00,
2013-07-19 09:06:00,81.6,74.5,29.78,NNW,331,0.0,11.0,79,0.00,,,0.00,Wunderground v.1.15,2013-07-19 13:06:00,
2013-07-19 09:07:00,81.7,74.5,29.78,NW,304,0.0,11.0,79,0.00,,,0.00,Wunderground v.1.15,2013-07-19 13:07:00,
2013-07-19 09:08:00,81.7,74.5,29.78,NNW,327,0.0,11.0,79,0.00,,,0.00,Wunderground v.1.15,2013-07-19 13:08:00,
2013-07-19 09:09:00,81.8,75.0,29.78,NNW,327,0.0,11.0,80,0.00,,,0.00,Wunderground v.1.15,2013-07-19 13:09:00,
2013-07-19 09:11:00,81.9,74.7,29.78,NW,307,6.0,7.0,79,0.00,,,0.00,Wunderground v.1.15,2013-07-19 13:11:00,
2013-07-19 09:12:00,82.0,74.8,29.78,WNW,287,2.0,7.0,79,0.00,,,0.00,Wunderground v.1.15,2013-07-19 13:12:00,
2013-07-19 09:13:00,82.0,74.8,29.78,WNW,302,10.0,10.0,79,0.00,,,0.00,Wunderground v.1.15,2013-07-19 13:13:00,
2013-07-19 09:14:00,82.0,74.8,29.78,WNW,298,0.0,10.0,79,0.00,,,0.00,Wunderground v.1.15,2013-07-19 13:14:00,
2013-07-19 09:16:00,82.1,74.9,29.78,NNW,344,0.0,10.0,79,0.00,,,0.00,Wunderground v.1.15,2013-07-19 13:16:00,
2013-07-19 09:18:00,82.1,74.9,29.78,NNW,330,0.0,10.0,79,0.00,,,0.00,Wunderground v.1.15,2013-07-19 13:18:00,
2013-07-19 09:19:00,82.2,75.0,29.78,WNW,296,0.0,2.0,79,0.00,,,0.00,Wunderground v.1.15,2013-07-19 13:19:00,
2013-07-19 09:21:00,82.3,75.1,29.78,NW,318,4.0,4.0,79,0.00,,,0.00,Wunderground v.1.15,2013-07-19 13:21:00,
2013-07-19 09:23:00,82.4,74.8,29.78,WNW,291,0.0,6.0,78,0.00,,,0.00,Wunderground v.1.15,2013-07-19 13:23:00,
2013-07-19 09:24:00,82.5,75.3,29.78,WNW,291,0.0,6.0,79,0.00,,,0.00,Wunderground v.1.15,2013-07-19 13:24:00,
2013-07-19 09:26:00,82.6,75.0,29.78,NW,314,0.0,7.0,78,0.00,,,0.00,Wunderground v.1.15,2013-07-19 13:26:00,
2013-07-19 09:28:00,82.7,74.8,29.78,WNW,300,2.0,12.0,77,0.00,,,0.00,Wunderground v.1.15,2013-07-19 13:28:00,
2013-07-19 09:29:00,82.7,75.1,29.78,WNW,299,1.0,12.0,78,0.00,,,0.00,Wunderground v.1.15,2013-07-19 13:29:00,
2013-07-19 09:31:00,82.8,75.2,29.78,WNW,296,5.0,9.0,78,0.00,,,0.00,Wunderground v.1.15,2013-07-19 13:31:00,
2013-07-19 09:34:00,82.9,74.9,29.79,NW,309,2.0,9.0,77,0.00,,,0.00,Wunderground v.1.15,2013-07-19 13:34:00,
2013-07-19 09:35:00,82.9,74.9,29.79,WNW,299,4.0,9.0,77,0.00,,,0.00,Wunderground v.1.15,2013-07-19 13:35:00,
2013-07-19 09:36:00,83.0,75.0,29.79,NW,304,7.0,9.0,77,0.00,,,0.00,Wunderground v.1.15,2013-07-19 13:36:00,
2013-07-19 09:39:00,83.1,74.7,29.79,NNW,342,1.0,9.0,76,0.00,,,0.00,Wunderground v.1.15,2013-07-19 13:39:00,
2013-07-19 09:40:00,83.2,74.8,29.79,North,355,5.0,7.0,76,0.00,,,0.00,Wunderground v.1.15,2013-07-19 13:40:00,
2013-07-19 09:41:00,83.2,74.4,29.79,NW,321,3.0,7.0,75,0.00,,,0.00,Wunderground v.1.15,2013-07-19 13:41:00,
2013-07-19 09:42:00,83.3,74.5,29.79,NW,308,7.0,7.0,75,0.00,,,0.00,Wunderground v.1.15,2013-07-19 13:42:00,
2013-07-19 09:44:00,83.3,74.5,29.79,NW,311,2.0,10.0,75,0.00,,,0.00,Wunderground v.1.15,2013-07-19 13:44:00,
2013-07-19 09:45:00,83.3,74.5,29.79,NW,311,1.0,10.0,75,0.00,,,0.00,Wunderground v.1.15,2013-07-19 13:45:00,
2013-07-19 09:46:00,83.4,74.6,29.79,WNW,286,3.0,10.0,75,0.00,,,0.00,Wunderground v.1.15,2013-07-19 13:46:00,
2013-07-19 09:47:00,83.4,74.2,29.79,NW,311,11.0,13.0,74,0.00,,,0.00,Wunderground v.1.15,2013-07-19 13:47:00,
2013-07-19 09:50:00,83.5,74.3,29.79,NW,306,9.0,13.0,74,0.00,,,0.00,Wunderground v.1.15,2013-07-19 13:50:00,
2013-07-19 09:51:00,83.5,74.3,29.79,North,355,4.0,13.0,74,0.00,,,0.00,Wunderground v.1.15,2013-07-19 13:51:00,
2013-07-19 09:52:00,83.6,74.8,29.79,WNW,291,3.0,13.0,75,0.00,,,0.00,Wunderground v.1.15,2013-07-19 13:52:00,
2013-07-19 09:55:00,83.7,74.5,29.79,WNW,300,0.0,13.0,74,0.00,,,0.00,Wunderground v.1.15,2013-07-19 13:55:00,
2013-07-19 09:56:00,83.7,74.5,29.79,NW,306,5.0,13.0,74,0.00,,,0.00,Wunderground v.1.15,2013-07-19 13:56:00,
2013-07-19 09:57:00,83.7,74.5,29.79,NW,317,3.0,13.0,74,0.00,,,0.00,Wunderground v.1.15,2013-07-19 13:57:00,
2013-07-19 10:00:00,83.9,74.7,29.79,NW,323,1.0,5.0,74,0.00,,,0.00,Wunderground v.1.15,2013-07-19 14:00:00,
2013-07-19 10:01:00,84.0,74.8,29.79,NW,313,5.0,5.0,74,0.00,,,0.00,Wunderground v.1.15,2013-07-19 14:01:00,
2013-07-19 10:02:00,84.1,74.9,29.78,WNW,300,4.0,6.0,74,0.00,,,0.00,Wunderground v.1.15,2013-07-19 14:02:00,
2013-07-19 10:05:00,84.2,74.6,29.78,WNW,302,5.0,14.0,73,0.00,,,0.00,Wunderground v.1.15,2013-07-19 14:05:00,
2013-07-19 10:06:00,84.3,74.7,29.78,North,355,4.0,14.0,73,0.00,,,0.00,Wunderground v.1.15,2013-07-19 14:06:00,
2013-07-19 10:07:00,84.3,74.7,29.78,NW,304,2.0,14.0,73,0.00,,,0.00,Wunderground v.1.15,2013-07-19 14:07:00,
2013-07-19 10:11:00,84.6,75.0,29.78,North,355,7.0,10.0,73,0.00,,,0.00,Wunderground v.1.15,2013-07-19 14:11:00,
2013-07-19 10:12:00,84.7,74.7,29.78,NW,315,2.0,10.0,72,0.00,,,0.00,Wunderground v.1.15,2013-07-19 14:12:00,
2013-07-19 10:16:00,84.8,74.8,29.78,NW,323,10.0,12.0,72,0.00,,,0.00,Wunderground v.1.15,2013-07-19 14:16:00,
2013-07-19 10:17:00,84.8,74.8,29.78,NW,318,1.0,12.0,72,0.00,,,0.00,Wunderground v.1.15,2013-07-19 14:17:00,
2013-07-19 10:21:00,85.1,75.1,29.78,North,355,2.0,5.0,72,0.00,,,0.00,Wunderground v.1.15,2013-07-19 14:21:00,
2013-07-19 10:22:00,85.1,74.2,29.78,WNW,294,10.0,14.0,70,0.00,,,0.00,Wunderground v.1.15,2013-07-19 14:22:00,
2013-07-19 10:26:00,85.1,74.6,29.78,WNW,302,0.0,14.0,71,0.00,,,0.00,Wunderground v.1.15,2013-07-19 14:26:00,
2013-07-19 10:27:00,85.1,74.6,29.78,WNW,298,12.0,14.0,71,0.00,,,0.00,Wunderground v.1.15,2013-07-19 14:27:00,
2013-07-19 10:31:00,85.3,74.8,29.78,NW,309,5.0,15.0,71,0.00,,,0.00,Wunderground v.1.15,2013-07-19 14:31:00,
2013-07-19 10:32:00,85.3,74.4,29.77,West,275,4.0,15.0,70,0.00,,,0.00,Wunderground v.1.15,2013-07-19 14:32:00,
2013-07-19 10:36:00,85.4,74.5,29.77,NNW,331,4.0,15.0,70,0.00,,,0.00,Wunderground v.1.15,2013-07-19 14:36:00,
2013-07-19 10:37:00,85.4,74.5,29.77,NW,317,3.0,15.0,70,0.00,,,0.00,Wunderground v.1.15,2013-07-19 14:37:00,
2013-07-19 10:38:00,85.4,74.1,29.77,NW,319,10.0,15.0,69,0.00,,,0.00,Wunderground v.1.15,2013-07-19 14:38:00,
2013-07-19 10:41:00,85.4,74.1,29.77,North,5,6.0,10.0,69,0.00,,,0.00,Wunderground v.1.15,2013-07-19 14:41:00,
2013-07-19 10:42:00,85.4,74.1,29.77,North,360,3.0,10.0,69,0.00,,,0.00,Wunderground v.1.15,2013-07-19 14:42:00,
2013-07-19 10:43:00,85.4,74.5,29.77,NW,308,2.0,10.0,70,0.00,,,0.00,Wunderground v.1.15,2013-07-19 14:43:00,
2013-07-19 10:46:00,85.6,74.7,29.77,NE,35,8.0,10.0,70,0.00,,,0.00,Wunderground v.1.15,2013-07-19 14:46:00,
2013-07-19 10:47:00,85.7,74.8,29.77,NW,308,3.0,10.0,70,0.00,,,0.00,Wunderground v.1.15,2013-07-19 14:47:00,
2013-07-19 10:48:00,85.7,74.8,29.77,WNW,302,7.0,10.0,70,0.00,,,0.00,Wunderground v.1.15,2013-07-19 14:48:00,
2013-07-19 10:51:00,85.9,74.5,29.77,North,360,4.0,9.0,69,0.00,,,0.00,Wunderground v.1.15,2013-07-19 14:51:00,
2013-07-19 10:52:00,85.9,74.5,29.77,North,360,4.0,9.0,69,0.00,,,0.00,Wunderground v.1.15,2013-07-19 14:52:00,
2013-07-19 10:53:00,86.0,74.6,29.77,NNE,15,5.0,9.0,69,0.00,,,0.00,Wunderground v.1.15,2013-07-19 14:53:00,
2013-07-19 10:54:00,86.0,74.6,29.77,NW,324,10.0,10.0,69,0.00,,,0.00,Wunderground v.1.15,2013-07-19 14:54:00,
2013-07-19 10:56:00,86.0,74.6,29.77,NW,311,10.0,10.0,69,0.00,,,0.00,Wunderground v.1.15,2013-07-19 14:56:00,
2013-07-19 10:57:00,86.0,74.6,29.77,North,5,8.0,14.0,69,0.00,,,0.00,Wunderground v.1.15,2013-07-19 14:57:00,
2013-07-19 10:58:00,86.0,74.2,29.77,North,355,4.0,14.0,68,0.00,,,0.00,Wunderground v.1.15,2013-07-19 14:58:00,
2013-07-19 10:59:00,86.0,74.6,29.77,NE,37,1.0,14.0,69,0.00,,,0.00,Wunderground v.1.15,2013-07-19 14:59:00,
2013-07-19 11:01:00,86.1,74.7,29.77,NW,315,6.0,12.0,69,0.00,,,0.00,Wunderground v.1.15,2013-07-19 15:01:00,
2013-07-19 11:03:00,86.2,74.4,29.77,NNW,342,0.0,12.0,68,0.00,,,0.00,Wunderground v.1.15,2013-07-19 15:03:00,
2013-07-19 11:04:00,86.3,74.9,29.77,West,279,11.0,12.0,69,0.00,,,0.00,Wunderground v.1.15,2013-07-19 15:04:00,
2013-07-19 11:07:00,86.5,74.7,29.77,West,281,8.0,12.0,68,0.00,,,0.00,Wunderground v.1.15,2013-07-19 15:07:00,
2013-07-19 11:08:00,86.5,74.7,29.77,NNW,330,3.0,12.0,68,0.00,,,0.00,Wunderground v.1.15,2013-07-19 15:08:00,
2013-07-19 11:09:00,86.6,74.8,29.77,NW,316,7.0,12.0,68,0.00,,,0.00,Wunderground v.1.15,2013-07-19 15:09:00,
2013-07-19 11:12:00,86.7,74.4,29.77,NW,317,5.0,11.0,67,0.00,,,0.00,Wunderground v.1.15,2013-07-19 15:12:00,
2013-07-19 11:13:00,86.7,74.4,29.77,WNW,302,6.0,11.0,67,0.00,,,0.00,Wunderground v.1.15,2013-07-19 15:13:00,
2013-07-19 11:14:00,86.7,74.0,29.77,NW,312,7.0,11.0,66,0.00,,,0.00,Wunderground v.1.15,2013-07-19 15:14:00,
2013-07-19 11:17:00,86.7,74.0,29.76,NNW,346,5.0,11.0,66,0.00,,,0.00,Wunderground v.1.15,2013-07-19 15:17:00,
2013-07-19 11:18:00,86.7,74.0,29.76,WNW,301,6.0,14.0,66,0.00,,,0.00,Wunderground v.1.15,2013-07-19 15:18:00,
2013-07-19 11:19:00,86.7,74.0,29.76,NW,304,14.0,14.0,66,0.00,,,0.00,Wunderground v.1.15,2013-07-19 15:19:00,
2013-07-19 11:20:00,86.7,73.5,29.76,NNW,340,5.0,14.0,65,0.00,,,0.00,Wunderground v.1.15,2013-07-19 15:20:00,
2013-07-19 11:22:00,86.7,74.0,29.76,NNW,343,6.0,14.0,66,0.00,,,0.00,Wunderground v.1.15,2013-07-19 15:22:00,
2013-07-19 11:24:00,86.7,74.0,29.76,WNW,299,4.0,14.0,66,0.00,,,0.00,Wunderground v.1.15,2013-07-19 15:24:00,
2013-07-19 11:25:00,86.8,74.1,29.76,NW,313,5.0,14.0,66,0.00,,,0.00,Wunderground v.1.15,2013-07-19 15:25:00,
2013-07-19 11:27:00,86.8,74.1,29.76,NW,309,10.0,19.0,66,0.00,,,0.00,Wunderground v.1.15,2013-07-19 15:27:00,
2013-07-19 11:29:00,86.8,74.5,29.76,North,360,5.0,19.0,67,0.00,,,0.00,Wunderground v.1.15,2013-07-19 15:29:00,
2013-07-19 11:30:00,86.9,74.2,29.76,NNE,23,5.0,8.0,66,0.00,,,0.00,Wunderground v.1.15,2013-07-19 15:30:00,
2013-07-19 11:31:00,86.9,74.2,29.76,NNW,345,0.0,8.0,66,0.00,,,0.00,Wunderground v.1.15,2013-07-19 15:31:00,
2013-07-19 11:32:00,87.0,74.7,29.76,West,269,5.0,9.0,67,0.00,,,0.00,Wunderground v.1.15,2013-07-19 15:32:00,
2013-07-19 11:34:00,87.2,74.5,29.76,WNW,300,6.0,10.0,66,0.00,,,0.00,Wunderground v.1.15,2013-07-19 15:34:00,
2013-07-19 11:35:00,87.3,74.5,29.76,WNW,294,7.0,10.0,66,0.00,,,0.00,Wunderground v.1.15,2013-07-19 15:35:00,
2013-07-19 11:36:00,87.4,74.2,29.76,NW,326,6.0,12.0,65,0.00,,,0.00,Wunderground v.1.15,2013-07-19 15:36:00,
2013-07-19 11:37:00,87.4,74.2,29.76,NNW,334,5.0,12.0,65,0.00,,,0.00,Wunderground v.1.15,2013-07-19 15:37:00,
2013-07-19 11:39:00,87.5,74.7,29.76,NW,309,5.0,5.0,66,0.00,,,0.00,Wunderground v.1.15,2013-07-19 15:39:00,
2013-07-19 11:40:00,87.5,74.7,29.76,NW,309,0.0,5.0,66,0.00,,,0.00,Wunderground v.1.15,2013-07-19 15:40:00,
2013-07-19 11:41:00,87.5,74.7,29.76,NW,309,2.0,5.0,66,0.00,,,0.00,Wunderground v.1.15,2013-07-19 15:41:00,
2013-07-19 11:42:00,87.7,74.9,29.76,WNW,303,0.0,10.0,66,0.00,,,0.00,Wunderground v.1.15,2013-07-19 15:42:00,
2013-07-19 11:45:00,87.7,74.9,29.76,NW,313,0.0,10.0,66,0.00,,,0.00,Wunderground v.1.15,2013-07-19 15:45:00,
2013-07-19 11:46:00,87.8,74.6,29.76,NNE,25,7.0,10.0,65,0.00,,,0.00,Wunderground v.1.15,2013-07-19 15:46:00,
2013-07-19 11:47:00,87.8,74.6,29.75,NW,309,4.0,13.0,65,0.00,,,0.00,Wunderground v.1.15,2013-07-19 15:47:00,
2013-07-19 11:50:00,88.0,74.3,29.75,WNW,288,5.0,13.0,64,0.00,,,0.00,Wunderground v.1.15,2013-07-19 15:50:00,
2013-07-19 11:51:00,88.0,73.8,29.75,NNW,328,8.0,15.0,63,0.00,,,0.00,Wunderground v.1.15,2013-07-19 15:51:00,
2013-07-19 11:53:00,88.0,73.3,29.75,NW,305,10.0,20.0,62,0.00,,,0.00,Wunderground v.1.15,2013-07-19 15:53:00,
2013-07-19 11:56:00,87.9,73.7,29.75,NW,326,3.0,20.0,63,0.00,,,0.00,Wunderground v.1.15,2013-07-19 15:56:00,
2013-07-19 11:57:00,87.7,73.5,29.75,NW,318,6.0,20.0,63,0.00,,,0.00,Wunderground v.1.15,2013-07-19 15:57:00,
2013-07-19 11:59:00,87.7,73.1,29.75,NNW,344,2.0,23.0,62,0.00,,,0.00,Wunderground v.1.15,2013-07-19 15:59:00,
2013-07-19 12:01:00,87.8,73.6,29.75,NW,318,4.0,14.0,63,0.00,,,0.00,Wunderground v.1.15,2013-07-19 16:01:00,
2013-07-19 12:02:00,87.8,73.6,29.75,NW,309,7.0,14.0,63,0.00,,,0.00,Wunderground v.1.15,2013-07-19 16:02:00,
2013-07-19 12:04:00,87.9,73.7,29.75,WNW,299,6.0,14.0,63,0.00,,,0.00,Wunderground v.1.15,2013-07-19 16:04:00,
2013-07-19 12:06:00,88.1,73.4,29.75,West,279,4.0,14.0,62,0.00,,,0.00,Wunderground v.1.15,2013-07-19 16:06:00,
2013-07-19 12:07:00,88.0,73.3,29.75,North,5,10.0,14.0,62,0.00,,,0.00,Wunderground v.1.15,2013-07-19 16:07:00,
2013-07-19 12:09:00,88.0,73.8,29.75,WNW,294,18.0,18.0,63,0.00,,,0.00,Wunderground v.1.15,2013-07-19 16:09:00,
2013-07-19 12:11:00,88.0,72.9,29.75,NNW,334,10.0,21.0,61,0.00,,,0.00,Wunderground v.1.15,2013-07-19 16:11:00,
2013-07-19 12:12:00,87.9,72.8,29.75,NNE,17,2.0,21.0,61,0.00,,,0.00,Wunderground v.1.15,2013-07-19 16:12:00,
2013-07-19 12:14:00,88.0,73.3,29.75,NNE,17,8.0,21.0,62,0.00,,,0.00,Wunderground v.1.15,2013-07-19 16:14:00,
2013-07-19 12:16:00,88.1,73.4,29.75,NW,311,4.0,21.0,62,0.00,,,0.00,Wunderground v.1.15,2013-07-19 16:16:00,
2013-07-19 12:17:00,88.1,73.4,29.75,WNW,298,4.0,21.0,62,0.00,,,0.00,Wunderground v.1.15,2013-07-19 16:17:00,
2013-07-19 12:18:00,88.2,74.0,29.75,NNE,15,5.0,21.0,63,0.00,,,0.00,Wunderground v.1.15,2013-07-19 16:18:00,
2013-07-19 12:19:00,88.2,73.5,29.75,NW,317,10.0,21.0,62,0.00,,,0.00,Wunderground v.1.15,2013-07-19 16:19:00,
2013-07-19 12:21:00,88.4,73.7,29.75,North,349,4.0,10.0,62,0.00,,,0.00,Wunderground v.1.15,2013-07-19 16:21:00,
2013-07-19 12:22:00,88.4,73.7,29.75,North,360,5.0,10.0,62,0.00,,,0.00,Wunderground v.1.15,2013-07-19 16:22:00,
2013-07-19 12:23:00,88.5,73.8,29.75,North,355,5.0,10.0,62,0.00,,,0.00,Wunderground v.1.15,2013-07-19 16:23:00,
2013-07-19 12:24:00,88.6,73.9,29.75,NW,326,5.0,12.0,62,0.00,,,0.00,Wunderground v.1.15,2013-07-19 16:24:00,
2013-07-19 12:26:00,88.8,73.1,29.75,WNW,291,5.0,14.0,60,0.00,,,0.00,Wunderground v.1.15,2013-07-19 16:26:00,
2013-07-19 12:27:00,88.8,73.1,29.75,WNW,303,9.0,14.0,60,0.00,,,0.00,Wunderground v.1.15,2013-07-19 16:27:00,
2013-07-19 12:28:00,88.9,73.2,29.75,North,360,6.0,14.0,60,0.00,,,0.00,Wunderground v.1.15,2013-07-19 16:28:00,
2013-07-19 12:30:00,89.0,73.3,29.75,NNW,330,8.0,8.0,60,0.00,,,0.00,Wunderground v.1.15,2013-07-19 16:30:00,
2013-07-19 12:31:00,89.0,73.3,29.75,WNW,289,7.0,15.0,60,0.00,,,0.00,Wunderground v.1.15,2013-07-19 16:31:00,
2013-07-19 12:32:00,89.0,73.3,29.74,WNW,292,8.0,15.0,60,0.00,,,0.00,Wunderground v.1.15,2013-07-19 16:32:00,
2013-07-19 12:33:00,89.1,73.4,29.74,WNW,299,11.0,18.0,60,0.00,,,0.00,Wunderground v.1.15,2013-07-19 16:33:00,
2013-07-19 12:35:00,89.1,73.4,29.74,NW,313,8.0,18.0,60,0.00,,,0.00,Wunderground v.1.15,2013-07-19 16:35:00,
2013-07-19 12:36:00,89.2,73.0,29.74,North,11,8.0,18.0,59,0.00,,,0.00,Wunderground v.1.15,2013-07-19 16:36:00,
2013-07-19 12:37:00,89.2,73.0,29.74,NW,322,6.0,18.0,59,0.00,,,0.00,Wunderground v.1.15,2013-07-19 16:37:00,
2013-07-19 12:39:00,89.3,72.6,29.74,North,355,11.0,18.0,58,0.00,,,0.00,Wunderground v.1.15,2013-07-19 16:39:00,
2013-07-19 12:40:00,89.3,72.6,29.74,West,265,12.0,12.0,58,0.00,,,0.00,Wunderground v.1.15,2013-07-19 16:40:00,
2013-07-19 12:41:00,89.4,73.7,29.74,NNW,332,9.0,14.0,60,0.00,,,0.00,Wunderground v.1.15,2013-07-19 16:41:00,
2013-07-19 12:42:00,89.4,72.7,29.74,WNW,287,14.0,14.0,58,0.00,,,0.00,Wunderground v.1.15,2013-07-19 16:42:00,
2013-07-19 12:44:00,89.5,72.8,29.74,NW,324,7.0,15.0,58,0.00,,,0.00,Wunderground v.1.15,2013-07-19 16:44:00,
2013-07-19 12:45:00,89.6,72.9,29.74,NNE,22,8.0,15.0,58,0.00,,,0.00,Wunderground v.1.15,2013-07-19 16:45:00,
2013-07-19 12:47:00,89.6,72.9,29.73,NW,318,7.0,15.0,58,0.00,,,0.00,Wunderground v.1.15,2013-07-19 16:47:00,
2013-07-19 12:48:00,89.6,72.9,29.73,North,355,2.0,15.0,58,0.00,,,0.00,Wunderground v.1.15,2013-07-19 16:48:00,
2013-07-19 12:49:00,89.7,73.0,29.73,North,355,0.0,15.0,58,0.00,,,0.00,Wunderground v.1.15,2013-07-19 16:49:00,
2013-07-19 12:50:00,89.8,73.6,29.73,NW,307,5.0,9.0,59,0.00,,,0.00,Wunderground v.1.15,2013-07-19 16:50:00,
2013-07-19 12:52:00,89.8,72.5,29.73,WNW,295,7.0,15.0,57,0.00,,,0.00,Wunderground v.1.15,2013-07-19 16:52:00,
2013-07-19 12:53:00,89.7,72.4,29.73,WNW,300,8.0,20.0,57,0.00,,,0.00,Wunderground v.1.15,2013-07-19 16:53:00,
2013-07-19 12:54:00,89.7,72.4,29.73,NW,309,3.0,20.0,57,0.00,,,0.00,Wunderground v.1.15,2013-07-19 16:54:00,
2013-07-19 12:56:00,89.7,73.0,29.73,WNW,299,2.0,20.0,58,0.00,,,0.00,Wunderground v.1.15,2013-07-19 16:56:00,
2013-07-19 12:57:00,89.7,72.4,29.73,West,263,7.0,20.0,57,0.00,,,0.00,Wunderground v.1.15,2013-07-19 16:57:00,
2013-07-19 12:58:00,89.8,72.0,29.73,NW,323,12.0,20.0,56,0.00,,,0.00,Wunderground v.1.15,2013-07-19 16:58:00,
2013-07-19 12:59:00,89.8,72.0,29.73,NW,317,9.0,20.0,56,0.00,,,0.00,Wunderground v.1.15,2013-07-19 16:59:00,
2013-07-19 13:01:00,89.7,72.4,29.73,NW,313,6.0,13.0,57,0.00,,,0.00,Wunderground v.1.15,2013-07-19 17:01:00,
2013-07-19 13:02:00,89.7,72.4,29.73,NNW,342,1.0,13.0,57,0.00,,,0.00,Wunderground v.1.15,2013-07-19 17:02:00,
2013-07-19 13:03:00,89.8,72.5,29.73,NW,311,4.0,13.0,57,0.00,,,0.00,Wunderground v.1.15,2013-07-19 17:03:00,
2013-07-19 13:04:00,89.9,72.6,29.73,North,355,6.0,13.0,57,0.00,,,0.00,Wunderground v.1.15,2013-07-19 17:04:00,
2013-07-19 13:06:00,90.0,72.7,29.73,WNW,288,4.0,13.0,57,0.00,,,0.00,Wunderground v.1.15,2013-07-19 17:06:00,
2013-07-19 13:07:00,90.2,72.4,29.73,WNW,290,6.0,13.0,56,0.00,,,0.00,Wunderground v.1.15,2013-07-19 17:07:00,
2013-07-19 13:08:00,90.2,72.4,29.73,WNW,283,8.0,13.0,56,0.00,,,0.00,Wunderground v.1.15,2013-07-19 17:08:00,
2013-07-19 13:09:00,90.2,72.4,29.73,NW,317,10.0,13.0,56,0.00,,,0.00,Wunderground v.1.15,2013-07-19 17:09:00,
2013-07-19 13:11:00,90.1,72.3,29.73,NW,318,5.0,15.0,56,0.00,,,0.00,Wunderground v.1.15,2013-07-19 17:11:00,
2013-07-19 13:13:00,90.1,72.3,29.73,NNW,329,5.0,15.0,56,0.00,,,0.00,Wunderground v.1.15,2013-07-19 17:13:00,
2013-07-19 13:14:00,90.1,72.8,29.73,NW,305,0.0,15.0,57,0.00,,,0.00,Wunderground v.1.15,2013-07-19 17:14:00,
2013-07-19 13:16:00,90.3,71.9,29.73,North,360,3.0,16.0,55,0.00,,,0.00,Wunderground v.1.15,2013-07-19 17:16:00,
2013-07-19 13:18:00,90.4,72.6,29.72,NW,306,4.0,18.0,56,0.00,,,0.00,Wunderground v.1.15,2013-07-19 17:18:00,
2013-07-19 13:19:00,90.4,72.6,29.72,NW,326,15.0,18.0,56,0.00,,,0.00,Wunderground v.1.15,2013-07-19 17:19:00,
2013-07-19 13:21:00,90.3,72.5,29.72,North,355,6.0,15.0,56,0.00,,,0.00,Wunderground v.1.15,2013-07-19 17:21:00,
2013-07-19 13:23:00,89.9,72.1,29.72,NNW,336,4.0,15.0,56,0.00,,,0.00,Wunderground v.1.15,2013-07-19 17:23:00,
2013-07-19 13:24:00,89.9,72.6,29.72,NNW,327,0.0,15.0,57,0.00,,,0.00,Wunderground v.1.15,2013-07-19 17:24:00,
2013-07-19 13:26:00,89.9,72.6,29.72,NW,318,8.0,15.0,57,0.00,,,0.00,Wunderground v.1.15,2013-07-19 17:26:00,
2013-07-19 13:28:00,89.9,72.6,29.72,NW,321,6.0,16.0,57,0.00,,,0.00,Wunderground v.1.15,2013-07-19 17:28:00,
2013-07-19 13:29:00,90.0,73.2,29.72,North,360,1.0,6.0,58,0.00,,,0.00,Wunderground v.1.15,2013-07-19 17:29:00,
2013-07-19 13:30:00,90.1,72.8,29.72,NW,315,4.0,6.0,57,0.00,,,0.00,Wunderground v.1.15,2013-07-19 17:30:00,
2013-07-19 13:32:00,90.2,72.9,29.72,WNW,302,4.0,12.0,57,0.00,,,0.00,Wunderground v.1.15,2013-07-19 17:32:00,
2013-07-19 13:33:00,90.3,72.5,29.72,NNE,13,5.0,23.0,56,0.00,,,0.00,Wunderground v.1.15,2013-07-19 17:33:00,
2013-07-19 13:34:00,90.3,71.9,29.72,WNW,292,5.0,23.0,55,0.00,,,0.00,Wunderground v.1.15,2013-07-19 17:34:00,
2013-07-19 13:35:00,90.3,72.5,29.72,WNW,292,5.0,23.0,56,0.00,,,0.00,Wunderground v.1.15,2013-07-19 17:35:00,
2013-07-19 13:36:00,90.5,72.1,29.72,NW,306,13.0,23.0,55,0.00,,,0.00,Wunderground v.1.15,2013-07-19 17:36:00,
2013-07-19 13:37:00,90.5,72.1,29.72,WNW,291,3.0,23.0,55,0.00,,,0.00,Wunderground v.1.15,2013-07-19 17:37:00,
2013-07-19 13:39:00,90.4,71.5,29.72,NNE,18,8.0,23.0,54,0.00,,,0.00,Wunderground v.1.15,2013-07-19 17:39:00,
2013-07-19 13:40:00,90.4,71.5,29.72,WNW,295,6.0,11.0,54,0.00,,,0.00,Wunderground v.1.15,2013-07-19 17:40:00,
2013-07-19 13:41:00,90.4,72.0,29.72,NW,309,2.0,11.0,55,0.00,,,0.00,Wunderground v.1.15,2013-07-19 17:41:00,
2013-07-19 13:42:00,90.5,72.1,29.72,NNW,341,2.0,15.0,55,0.00,,,0.00,Wunderground v.1.15,2013-07-19 17:42:00,
2013-07-19 13:44:00,90.6,72.2,29.72,NW,311,5.0,15.0,55,0.00,,,0.00,Wunderground v.1.15,2013-07-19 17:44:00,
2013-07-19 13:45:00,90.7,72.3,29.72,WSW,246,7.0,15.0,55,0.00,,,0.00,Wunderground v.1.15,2013-07-19 17:45:00,
2013-07-19 13:46:00,90.8,71.9,29.72,NW,314,6.0,15.0,54,0.00,,,0.00,Wunderground v.1.15,2013-07-19 17:46:00,
2013-07-19 13:48:00,90.9,71.4,29.71,NNW,337,6.0,15.0,53,0.00,,,0.00,Wunderground v.1.15,2013-07-19 17:48:00,
2013-07-19 13:50:00,91.0,72.6,29.71,NNW,336,4.0,6.0,55,0.00,,,0.00,Wunderground v.1.15,2013-07-19 17:50:00,
2013-07-19 13:51:00,91.0,73.1,29.71,WNW,301,4.0,6.0,56,0.00,,,0.00,Wunderground v.1.15,2013-07-19 17:51:00,
2013-07-19 13:53:00,91.3,71.8,29.71,NNE,33,10.0,13.0,53,0.00,,,0.00,Wunderground v.1.15,2013-07-19 17:53:00,
2013-07-19 13:55:00,91.4,71.9,29.71,North,360,6.0,13.0,53,0.00,,,0.00,Wunderground v.1.15,2013-07-19 17:55:00,
2013-07-19 13:56:00,91.5,72.0,29.71,North,355,1.0,13.0,53,0.00,,,0.00,Wunderground v.1.15,2013-07-19 17:56:00,
2013-07-19 13:57:00,91.5,72.0,29.71,NW,322,1.0,19.0,53,0.00,,,0.00,Wunderground v.1.15,2013-07-19 17:57:00,
2013-07-19 13:58:00,91.5,72.0,29.71,North,360,8.0,19.0,53,0.00,,,0.00,Wunderground v.1.15,2013-07-19 17:58:00,
2013-07-19 14:00:00,91.6,72.6,29.71,NNW,347,7.0,15.0,54,0.00,,,0.00,Wunderground v.1.15,2013-07-19 18:00:00,
2013-07-19 14:01:00,91.5,71.4,29.71,NW,325,2.0,16.0,52,0.00,,,0.00,Wunderground v.1.15,2013-07-19 18:01:00,
2013-07-19 14:02:00,91.5,71.4,29.70,NNE,20,4.0,16.0,52,0.00,,,0.00,Wunderground v.1.15,2013-07-19 18:02:00,
2013-07-19 14:03:00,91.4,71.9,29.70,NNE,14,7.0,16.0,53,0.00,,,0.00,Wunderground v.1.15,2013-07-19 18:03:00,
2013-07-19 14:05:00,91.2,71.1,29.70,WNW,296,9.0,18.0,52,0.00,,,0.00,Wunderground v.1.15,2013-07-19 18:05:00,
2013-07-19 14:06:00,91.2,71.7,29.70,WNW,302,6.0,18.0,53,0.00,,,0.00,Wunderground v.1.15,2013-07-19 18:06:00,
2013-07-19 14:07:00,91.2,71.7,29.70,NW,311,3.0,21.0,53,0.00,,,0.00,Wunderground v.1.15,2013-07-19 18:07:00,
2013-07-19 14:08:00,91.2,72.2,29.70,NW,313,4.0,21.0,54,0.00,,,0.00,Wunderground v.1.15,2013-07-19 18:08:00,
2013-07-19 14:11:00,91.4,73.0,29.70,NW,326,2.0,7.0,55,0.00,,,0.00,Wunderground v.1.15,2013-07-19 18:11:00,
2013-07-19 14:12:00,91.5,73.1,29.70,NW,311,5.0,11.0,55,0.00,,,0.00,Wunderground v.1.15,2013-07-19 18:12:00,
2013-07-19 14:14:00,91.6,72.0,29.70,North,5,7.0,11.0,53,0.00,,,0.00,Wunderground v.1.15,2013-07-19 18:14:00,
2013-07-19 14:16:00,91.6,72.0,29.70,North,5,2.0,12.0,53,0.00,,,0.00,Wunderground v.1.15,2013-07-19 18:16:00,
2013-07-19 14:17:00,91.6,72.0,29.69,NNE,26,2.0,12.0,53,0.00,,,0.00,Wunderground v.1.15,2013-07-19 18:17:00,
2013-07-19 14:19:00,91.7,72.1,29.69,North,351,3.0,12.0,53,0.00,,,0.00,Wunderground v.1.15,2013-07-19 18:19:00,
2013-07-19 14:21:00,91.7,72.1,29.69,NNE,12,1.0,12.0,53,0.00,,,0.00,Wunderground v.1.15,2013-07-19 18:21:00,
2013-07-19 14:22:00,91.7,72.7,29.69,North,10,5.0,12.0,54,0.00,,,0.00,Wunderground v.1.15,2013-07-19 18:22:00,
2013-07-19 14:23:00,91.7,72.1,29.69,North,355,5.0,12.0,53,0.00,,,0.00,Wunderground v.1.15,2013-07-19 18:23:00,
2013-07-19 14:24:00,91.7,71.6,29.69,NNE,17,18.0,19.0,52,0.00,,,0.00,Wunderground v.1.15,2013-07-19 18:24:00,
2013-07-19 14:27:00,91.5,72.0,29.69,NNW,342,8.0,19.0,53,0.00,,,0.00,Wunderground v.1.15,2013-07-19 18:27:00,
2013-07-19 14:28:00,91.4,71.9,29.69,NNW,337,3.0,19.0,53,0.00,,,0.00,Wunderground v.1.15,2013-07-19 18:28:00,
2013-07-19 14:30:00,91.3,71.8,29.69,NW,317,7.0,8.0,53,0.00,,,0.00,Wunderground v.1.15,2013-07-19 18:30:00,
2013-07-19 14:32:00,91.3,72.3,29.69,NNE,15,0.0,12.0,54,0.00,,,0.00,Wunderground v.1.15,2013-07-19 18:32:00,
2013-07-19 14:33:00,91.3,72.3,29.69,NNE,15,0.0,12.0,54,0.00,,,0.00,Wunderground v.1.15,2013-07-19 18:33:00,
2013-07-19 14:35:00,91.4,71.3,29.69,NW,319,5.0,15.0,52,0.00,,,0.00,Wunderground v.1.15,2013-07-19 18:35:00,
2013-07-19 14:37:00,91.3,71.8,29.69,North,10,4.0,15.0,53,0.00,,,0.00,Wunderground v.1.15,2013-07-19 18:37:00,
2013-07-19 14:38:00,91.3,71.8,29.69,NW,306,5.0,15.0,53,0.00,,,0.00,Wunderground v.1.15,2013-07-19 18:38:00,
2013-07-19 14:40:00,91.5,72.0,29.69,NW,323,7.0,18.0,53,0.00,,,0.00,Wunderground v.1.15,2013-07-19 18:40:00,
2013-07-19 14:43:00,91.7,72.1,29.69,NNW,346,4.0,18.0,53,0.00,,,0.00,Wunderground v.1.15,2013-07-19 18:43:00,
2013-07-19 14:45:00,91.7,72.1,29.69,North,355,4.0,19.0,53,0.00,,,0.00,Wunderground v.1.15,2013-07-19 18:45:00,
2013-07-19 14:48:00,91.5,71.4,29.68,WNW,290,9.0,19.0,52,0.00,,,0.00,Wunderground v.1.15,2013-07-19 18:48:00,
2013-07-19 14:51:00,91.4,71.9,29.68,NW,317,7.0,14.0,53,0.00,,,0.00,Wunderground v.1.15,2013-07-19 18:51:00,
2013-07-19 14:53:00,91.5,72.0,29.68,NW,314,10.0,14.0,53,0.00,,,0.00,Wunderground v.1.15,2013-07-19 18:53:00,
2013-07-19 14:56:00,91.8,71.7,29.68,NNW,339,2.0,14.0,52,0.00,,,0.00,Wunderground v.1.15,2013-07-19 18:56:00,
2013-07-19 14:58:00,91.8,71.1,29.68,North,5,2.0,23.0,51,0.00,,,0.00,Wunderground v.1.15,2013-07-19 18:58:00,
2013-07-19 14:59:00,91.8,71.7,29.68,NW,306,11.0,23.0,52,0.00,,,0.00,Wunderground v.1.15,2013-07-19 18:59:00,
2013-07-19 15:01:00,91.7,71.6,29.68,NW,322,9.0,18.0,52,0.00,,,0.00,Wunderground v.1.15,2013-07-19 19:01:00,
2013-07-19 15:03:00,91.7,71.6,29.67,NNW,348,7.0,18.0,52,0.00,,,0.00,Wunderground v.1.15,2013-07-19 19:03:00,
2013-07-19 15:04:00,91.7,71.6,29.67,NNW,338,4.0,18.0,52,0.00,,,0.00,Wunderground v.1.15,2013-07-19 19:04:00,
2013-07-19 15:05:00,91.7,72.1,29.67,WNW,295,4.0,18.0,53,0.00,,,0.00,Wunderground v.1.15,2013-07-19 19:05:00,
2013-07-19 15:06:00,91.7,71.6,29.67,North,349,5.0,18.0,52,0.00,,,0.00,Wunderground v.1.15,2013-07-19 19:06:00,
2013-07-19 15:08:00,91.7,71.6,29.67,WNW,302,7.0,18.0,52,0.00,,,0.00,Wunderground v.1.15,2013-07-19 19:08:00,
2013-07-19 15:09:00,91.8,72.2,29.67,NNW,327,5.0,18.0,53,0.00,,,0.00,Wunderground v.1.15,2013-07-19 19:09:00,
2013-07-19 15:10:00,91.8,72.2,29.67,North,349,4.0,7.0,53,0.00,,,0.00,Wunderground v.1.15,2013-07-19 19:10:00,
2013-07-19 15:12:00,92.0,72.4,29.67,NW,318,5.0,8.0,53,0.00,,,0.00,Wunderground v.1.15,2013-07-19 19:12:00,
2013-07-19 15:13:00,92.1,71.4,29.67,WNW,288,7.0,15.0,51,0.00,,,0.00,Wunderground v.1.15,2013-07-19 19:13:00,
2013-07-19 15:14:00,92.1,71.4,29.67,NNW,336,2.0,15.0,51,0.00,,,0.00,Wunderground v.1.15,2013-07-19 19:14:00,
2013-07-19 15:15:00,92.1,71.9,29.67,WNW,291,7.0,15.0,52,0.00,,,0.00,Wunderground v.1.15,2013-07-19 19:15:00,
2013-07-19 15:17:00,92.0,71.9,29.66,NNW,344,2.0,22.0,52,0.00,,,0.00,Wunderground v.1.15,2013-07-19 19:17:00,
2013-07-19 15:18:00,91.8,71.7,29.66,WNW,296,5.0,22.0,52,0.00,,,0.00,Wunderground v.1.15,2013-07-19 19:18:00,
2013-07-19 15:19:00,91.8,72.2,29.66,NE,48,14.0,14.0,53,0.00,,,0.00,Wunderground v.1.15,2013-07-19 19:19:00,
2013-07-19 15:20:00,91.8,71.7,29.66,NW,313,4.0,14.0,52,0.00,,,0.00,Wunderground v.1.15,2013-07-19 19:20:00,
2013-07-19 15:22:00,91.9,72.3,29.66,NNW,348,6.0,14.0,53,0.00,,,0.00,Wunderground v.1.15,2013-07-19 19:22:00,
2013-07-19 15:24:00,92.0,71.9,29.66,NNW,333,7.0,14.0,52,0.00,,,0.00,Wunderground v.1.15,2013-07-19 19:24:00,
2013-07-19 15:25:00,92.1,71.9,29.66,West,271,9.0,14.0,52,0.00,,,0.00,Wunderground v.1.15,2013-07-19 19:25:00,
2013-07-19 15:28:00,92.1,71.9,29.66,NE,42,2.0,15.0,52,0.00,,,0.00,Wunderground v.1.15,2013-07-19 19:28:00,
2013-07-19 15:29:00,92.1,71.9,29.66,NNW,342,5.0,15.0,52,0.00,,,0.00,Wunderground v.1.15,2013-07-19 19:29:00,
2013-07-19 15:30:00,92.1,71.4,29.66,NW,309,6.0,11.0,51,0.00,,,0.00,Wunderground v.1.15,2013-07-19 19:30:00,
2013-07-19 15:31:00,92.0,71.3,29.66,NW,321,3.0,11.0,51,0.00,,,0.00,Wunderground v.1.15,2013-07-19 19:31:00,
2013-07-19 15:33:00,91.7,71.6,29.66,NW,310,6.0,14.0,52,0.00,,,0.00,Wunderground v.1.15,2013-07-19 19:33:00,
2013-07-19 15:35:00,91.6,71.5,29.66,NW,306,12.0,14.0,52,0.00,,,0.00,Wunderground v.1.15,2013-07-19 19:35:00,
2013-07-19 15:36:00,91.6,71.5,29.66,North,350,6.0,14.0,52,0.00,,,0.00,Wunderground v.1.15,2013-07-19 19:36:00,
2013-07-19 15:38:00,91.7,72.1,29.66,ESE,107,4.0,14.0,53,0.00,,,0.00,Wunderground v.1.15,2013-07-19 19:38:00,
2013-07-19 15:40:00,91.8,72.2,29.66,NW,319,3.0,13.0,53,0.00,,,0.00,Wunderground v.1.15,2013-07-19 19:40:00,
2013-07-19 15:41:00,91.8,71.7,29.66,WNW,300,6.0,13.0,52,0.00,,,0.00,Wunderground v.1.15,2013-07-19 19:41:00,
2013-07-19 15:43:00,91.9,72.3,29.66,North,9,7.0,13.0,53,0.00,,,0.00,Wunderground v.1.15,2013-07-19 19:43:00,
2013-07-19 15:45:00,92.1,72.5,29.66,WNW,300,7.0,13.0,53,0.00,,,0.00,Wunderground v.1.15,2013-07-19 19:45:00,
2013-07-19 15:46:00,92.2,72.6,29.66,NNW,336,2.0,13.0,53,0.00,,,0.00,Wunderground v.1.15,2013-07-19 19:46:00,
2013-07-19 15:48:00,92.5,72.3,29.66,WNW,301,7.0,13.0,52,0.00,,,0.00,Wunderground v.1.15,2013-07-19 19:48:00,
2013-07-19 15:50:00,92.5,72.3,29.66,NW,326,1.0,6.0,52,0.00,,,0.00,Wunderground v.1.15,2013-07-19 19:50:00,
2013-07-19 15:51:00,92.4,72.2,29.66,NW,310,10.0,10.0,52,0.00,,,0.00,Wunderground v.1.15,2013-07-19 19:51:00,
2013-07-19 15:52:00,92.4,72.2,29.66,NNW,336,1.0,10.0,52,0.00,,,0.00,Wunderground v.1.15,2013-07-19 19:52:00,
2013-07-19 15:53:00,92.3,72.7,29.66,NNE,25,1.0,10.0,53,0.00,,,0.00,Wunderground v.1.15,2013-07-19 19:53:00,
2013-07-19 15:55:00,92.1,71.9,29.66,NNW,333,12.0,12.0,52,0.00,,,0.00,Wunderground v.1.15,2013-07-19 19:55:00,
2013-07-19 15:56:00,91.9,71.8,29.66,NNW,345,5.0,12.0,52,0.00,,,0.00,Wunderground v.1.15,2013-07-19 19:56:00,
2013-07-19 15:57:00,91.8,72.2,29.66,NW,322,1.0,12.0,53,0.00,,,0.00,Wunderground v.1.15,2013-07-19 19:57:00,
2013-07-19 15:59:00,91.6,72.0,29.66,North,355,10.0,12.0,53,0.00,,,0.00,Wunderground v.1.15,2013-07-19 19:59:00,
2013-07-19 16:00:00,91.5,72.0,29.66,WNW,302,7.0,12.0,53,0.00,,,0.00,Wunderground v.1.15,2013-07-19 20:00:00,
2013-07-19 16:01:00,91.5,72.0,29.66,NNE,21,6.0,12.0,53,0.00,,,0.00,Wunderground v.1.15,2013-07-19 20:01:00,
2013-07-19 16:02:00,91.6,72.0,29.66,NNW,329,8.0,12.0,53,0.00,,,0.00,Wunderground v.1.15,2013-07-19 20:02:00,
2013-07-19 16:03:00,91.6,72.0,29.66,NNW,345,4.0,12.0,53,0.00,,,0.00,Wunderground v.1.15,2013-07-19 20:03:00,
2013-07-19 16:04:00,91.7,72.1,29.66,NNW,335,0.0,14.0,53,0.00,,,0.00,Wunderground v.1.15,2013-07-19 20:04:00,
2013-07-19 16:06:00,91.8,72.2,29.66,WNW,292,8.0,14.0,53,0.00,,,0.00,Wunderground v.1.15,2013-07-19 20:06:00,
2013-07-19 16:07:00,92.0,71.3,29.66,NNW,334,10.0,14.0,51,0.00,,,0.00,Wunderground v.1.15,2013-07-19 20:07:00,
2013-07-19 16:08:00,92.1,71.4,29.66,North,355,1.0,18.0,51,0.00,,,0.00,Wunderground v.1.15,2013-07-19 20:08:00,
2013-07-19 16:09:00,92.1,71.4,29.66,WNW,303,4.0,18.0,51,0.00,,,0.00,Wunderground v.1.15,2013-07-19 20:09:00,
2013-07-19 16:11:00,92.3,72.1,29.66,North,355,5.0,8.0,52,0.00,,,0.00,Wunderground v.1.15,2013-07-19 20:11:00,
2013-07-19 16:12:00,92.3,72.7,29.66,North,9,0.0,8.0,53,0.00,,,0.00,Wunderground v.1.15,2013-07-19 20:12:00,
2013-07-19 16:13:00,92.4,73.3,29.66,NNW,327,2.0,8.0,54,0.00,,,0.00,Wunderground v.1.15,2013-07-19 20:13:00,
2013-07-19 16:14:00,92.6,72.4,29.66,NW,309,8.0,9.0,52,0.00,,,0.00,Wunderground v.1.15,2013-07-19 20:14:00,
2013-07-19 16:16:00,92.8,72.0,29.66,NW,311,4.0,14.0,51,0.00,,,0.00,Wunderground v.1.15,2013-07-19 20:16:00,
2013-07-19 16:17:00,92.8,71.4,29.65,NW,314,10.0,14.0,50,0.00,,,0.00,Wunderground v.1.15,2013-07-19 20:17:00,
2013-07-19 16:18:00,92.8,71.4,29.65,NNE,30,6.0,14.0,50,0.00,,,0.00,Wunderground v.1.15,2013-07-19 20:18:00,
2013-07-19 16:20:00,92.6,70.6,29.65,North,355,9.0,11.0,49,0.00,,,0.00,Wunderground v.1.15,2013-07-19 20:20:00,
2013-07-19 16:21:00,92.4,71.6,29.65,North,10,1.0,11.0,51,0.00,,,0.00,Wunderground v.1.15,2013-07-19 20:21:00,
2013-07-19 16:23:00,92.3,71.6,29.65,NNW,331,6.0,11.0,51,0.00,,,0.00,Wunderground v.1.15,2013-07-19 20:23:00,
2013-07-19 16:25:00,92.0,71.3,29.65,WNW,297,11.0,19.0,51,0.00,,,0.00,Wunderground v.1.15,2013-07-19 20:25:00,
2013-07-19 16:26:00,91.9,71.8,29.65,NW,309,0.0,19.0,52,0.00,,,0.00,Wunderground v.1.15,2013-07-19 20:26:00,
2013-07-19 16:28:00,91.9,71.8,29.65,NNW,336,7.0,19.0,52,0.00,,,0.00,Wunderground v.1.15,2013-07-19 20:28:00,
2013-07-19 16:29:00,91.9,71.8,29.65,NNW,341,2.0,19.0,52,0.00,,,0.00,Wunderground v.1.15,2013-07-19 20:29:00,
2013-07-19 16:30:00,91.8,71.7,29.65,WNW,295,7.0,7.0,52,0.00,,,0.00,Wunderground v.1.15,2013-07-19 20:30:00,
2013-07-19 16:32:00,91.8,72.2,29.65,NNW,341,5.0,9.0,53,0.00,,,0.00,Wunderground v.1.15,2013-07-19 20:32:00,
2013-07-19 16:33:00,91.7,71.6,29.65,North,5,9.0,10.0,52,0.00,,,0.00,Wunderground v.1.15,2013-07-19 20:33:00,
2013-07-19 16:34:00,91.7,71.6,29.65,NW,313,8.0,12.0,52,0.00,,,0.00,Wunderground v.1.15,2013-07-19 20:34:00,
2013-07-19 16:35:00,91.7,72.1,29.65,NW,314,8.0,13.0,53,0.00,,,0.00,Wunderground v.1.15,2013-07-19 20:35:00,
2013-07-19 16:37:00,91.9,72.9,29.65,NW,310,9.0,14.0,54,0.00,,,0.00,Wunderground v.1.15,2013-07-19 20:37:00,
2013-07-19 16:38:00,91.9,72.3,29.65,NW,322,4.0,14.0,53,0.00,,,0.00,Wunderground v.1.15,2013-07-19 20:38:00,
2013-07-19 16:39:00,91.9,72.3,29.65,WNW,303,5.0,5.0,53,0.00,,,0.00,Wunderground v.1.15,2013-07-19 20:39:00,
2013-07-19 16:40:00,91.9,72.3,29.65,West,265,7.0,7.0,53,0.00,,,0.00,Wunderground v.1.15,2013-07-19 20:40:00,
2013-07-19 16:42:00,91.9,72.9,29.65,NNW,332,5.0,7.0,54,0.00,,,0.00,Wunderground v.1.15,2013-07-19 20:42:00,
2013-07-19 16:43:00,91.9,72.3,29.65,NW,314,4.0,7.0,53,0.00,,,0.00,Wunderground v.1.15,2013-07-19 20:43:00,
2013-07-19 16:45:00,91.9,72.3,29.65,NW,309,3.0,11.0,53,0.00,,,0.00,Wunderground v.1.15,2013-07-19 20:45:00,
2013-07-19 16:48:00,91.7,72.1,29.65,North,355,9.0,16.0,53,0.00,,,0.00,Wunderground v.1.15,2013-07-19 20:48:00,
2013-07-19 16:49:00,91.6,72.6,29.65,NNW,335,5.0,16.0,54,0.00,,,0.00,Wunderground v.1.15,2013-07-19 20:49:00,
2013-07-19 16:50:00,91.5,72.5,29.65,NNE,21,5.0,6.0,54,0.00,,,0.00,Wunderground v.1.15,2013-07-19 20:50:00,
2013-07-19 16:53:00,91.5,72.5,29.65,NNW,348,5.0,9.0,54,0.00,,,0.00,Wunderground v.1.15,2013-07-19 20:53:00,
2013-07-19 16:54:00,91.5,72.5,29.65,NNW,348,8.0,11.0,54,0.00,,,0.00,Wunderground v.1.15,2013-07-19 20:54:00,
2013-07-19 16:55:00,91.5,72.0,29.65,NW,313,1.0,11.0,53,0.00,,,0.00,Wunderground v.1.15,2013-07-19 20:55:00,
2013-07-19 16:58:00,91.6,72.0,29.65,NNW,341,0.0,13.0,53,0.00,,,0.00,Wunderground v.1.15,2013-07-19 20:58:00,
2013-07-19 16:59:00,91.7,72.1,29.65,North,360,8.0,13.0,53,0.00,,,0.00,Wunderground v.1.15,2013-07-19 20:59:00,
2013-07-19 17:00:00,91.8,72.8,29.65,NW,317,4.0,8.0,54,0.00,,,0.00,Wunderground v.1.15,2013-07-19 21:00:00,
2013-07-19 17:01:00,91.9,71.8,29.65,WNW,302,13.0,18.0,52,0.00,,,0.00,Wunderground v.1.15,2013-07-19 21:01:00,
2013-07-19 17:03:00,91.8,71.7,29.65,North,360,4.0,18.0,52,0.00,,,0.00,Wunderground v.1.15,2013-07-19 21:03:00,
2013-07-19 17:04:00,91.7,71.6,29.65,NNE,19,7.0,18.0,52,0.00,,,0.00,Wunderground v.1.15,2013-07-19 21:04:00,
2013-07-19 17:05:00,91.5,71.4,29.65,North,350,6.0,18.0,52,0.00,,,0.00,Wunderground v.1.15,2013-07-19 21:05:00,
2013-07-19 17:07:00,91.3,71.8,29.65,North,349,1.0,18.0,53,0.00,,,0.00,Wunderground v.1.15,2013-07-19 21:07:00,
2013-07-19 17:08:00,91.3,71.8,29.65,North,360,9.0,18.0,53,0.00,,,0.00,Wunderground v.1.15,2013-07-19 21:08:00,
2013-07-19 17:09:00,91.3,71.8,29.65,North,5,6.0,6.0,53,0.00,,,0.00,Wunderground v.1.15,2013-07-19 21:09:00,
2013-07-19 17:10:00,91.4,72.4,29.65,NW,313,0.0,6.0,54,0.00,,,0.00,Wunderground v.1.15,2013-07-19 21:10:00,
2013-07-19 17:12:00,91.5,72.0,29.65,NNW,348,2.0,7.0,53,0.00,,,0.00,Wunderground v.1.15,2013-07-19 21:12:00,
2013-07-19 17:13:00,91.7,72.1,29.65,NW,319,2.0,9.0,53,0.00,,,0.00,Wunderground v.1.15,2013-07-19 21:13:00,
2013-07-19 17:15:00,91.8,72.2,29.65,NNW,330,2.0,11.0,53,0.00,,,0.00,Wunderground v.1.15,2013-07-19 21:15:00,
2013-07-19 17:16:00,91.9,72.3,29.65,North,355,0.0,11.0,53,0.00,,,0.00,Wunderground v.1.15,2013-07-19 21:16:00,
2013-07-19 17:17:00,92.0,73.0,29.65,WNW,294,4.0,11.0,54,0.00,,,0.00,Wunderground v.1.15,2013-07-19 21:17:00,
2013-07-19 17:18:00,92.2,72.6,29.65,NNE,22,6.0,11.0,53,0.00,,,0.00,Wunderground v.1.15,2013-07-19 21:18:00,
2013-07-19 17:20:00,92.2,72.0,29.65,NW,316,4.0,20.0,52,0.00,,,0.00,Wunderground v.1.15,2013-07-19 21:20:00,
2013-07-19 17:21:00,92.3,72.1,29.65,North,9,4.0,20.0,52,0.00,,,0.00,Wunderground v.1.15,2013-07-19 21:21:00,
2013-07-19 17:22:00,92.3,72.1,29.65,WNW,294,7.0,20.0,52,0.00,,,0.00,Wunderground v.1.15,2013-07-19 21:22:00,
2013-07-19 17:23:00,92.3,72.1,29.65,North,5,6.0,20.0,52,0.00,,,0.00,Wunderground v.1.15,2013-07-19 21:23:00,
2013-07-19 17:25:00,92.2,72.0,29.65,NW,310,9.0,20.0,52,0.00,,,0.00,Wunderground v.1.15,2013-07-19 21:25:00,
2013-07-19 17:26:00,92.2,71.5,29.65,North,360,8.0,20.0,51,0.00,,,0.00,Wunderground v.1.15,2013-07-19 21:26:00,
2013-07-19 17:27:00,92.1,71.4,29.65,NW,305,7.0,20.0,51,0.00,,,0.00,Wunderground v.1.15,2013-07-19 21:27:00,
2013-07-19 17:28:00,92.1,71.9,29.65,NW,324,9.0,20.0,52,0.00,,,0.00,Wunderground v.1.15,2013-07-19 21:28:00,
2013-07-19 17:32:00,92.0,72.4,29.65,NW,307,0.0,7.0,53,0.00,,,0.00,Wunderground v.1.15,2013-07-19 21:32:00,
2013-07-19 17:33:00,92.0,72.4,29.63,NW,306,5.0,8.0,53,0.00,,,0.00,Wunderground v.1.15,2013-07-19 21:33:00,
2013-07-19 17:34:00,92.0,72.4,29.63,WNW,300,4.0,8.0,53,0.00,,,0.00,Wunderground v.1.15,2013-07-19 21:34:00,
2013-07-19 17:37:00,92.1,72.5,29.63,WSW,257,8.0,18.0,53,0.00,,,0.00,Wunderground v.1.15,2013-07-19 21:37:00,
2013-07-19 17:38:00,91.9,72.3,29.63,NW,325,5.0,18.0,53,0.00,,,0.00,Wunderground v.1.15,2013-07-19 21:38:00,
2013-07-19 17:39:00,91.7,72.1,29.63,NW,313,15.0,18.0,53,0.00,,,0.00,Wunderground v.1.15,2013-07-19 21:39:00,
2013-07-19 17:42:00,90.8,71.9,29.63,NW,318,5.0,21.0,54,0.00,,,0.00,Wunderground v.1.15,2013-07-19 21:42:00,
2013-07-19 17:43:00,90.6,71.7,29.63,WNW,290,5.0,21.0,54,0.00,,,0.00,Wunderground v.1.15,2013-07-19 21:43:00,
2013-07-19 17:44:00,90.4,72.0,29.63,NW,325,4.0,21.0,55,0.00,,,0.00,Wunderground v.1.15,2013-07-19 21:44:00,
2013-07-19 17:47:00,90.0,72.2,29.64,North,11,6.0,21.0,56,0.00,,,0.00,Wunderground v.1.15,2013-07-19 21:47:00,
2013-07-19 17:48:00,89.9,72.1,29.64,NW,319,2.0,21.0,56,0.00,,,0.00,Wunderground v.1.15,2013-07-19 21:48:00,
2013-07-19 17:49:00,89.7,71.9,29.64,NW,313,3.0,21.0,56,0.00,,,0.00,Wunderground v.1.15,2013-07-19 21:49:00,
2013-07-19 17:52:00,89.4,71.6,29.64,NW,320,14.0,16.0,56,0.00,,,0.00,Wunderground v.1.15,2013-07-19 21:52:00,
2013-07-19 17:53:00,89.2,71.5,29.64,NW,314,13.0,21.0,56,0.00,,,0.00,Wunderground v.1.15,2013-07-19 21:53:00,
2013-07-19 17:54:00,89.1,70.8,29.64,North,9,6.0,21.0,55,0.00,,,0.00,Wunderground v.1.15,2013-07-19 21:54:00,
2013-07-19 17:57:00,88.2,71.0,29.64,WNW,292,4.0,21.0,57,0.00,,,0.00,Wunderground v.1.15,2013-07-19 21:57:00,
2013-07-19 17:58:00,88.0,70.9,29.64,WNW,298,7.0,21.0,57,0.00,,,0.00,Wunderground v.1.15,2013-07-19 21:58:00,
2013-07-19 17:59:00,87.8,71.2,29.64,NNE,26,4.0,21.0,58,0.00,,,0.00,Wunderground v.1.15,2013-07-19 21:59:00,
2013-07-19 18:02:00,86.9,70.8,29.65,NW,307,10.0,12.0,59,0.00,,,0.00,Wunderground v.1.15,2013-07-19 22:02:00,
2013-07-19 18:03:00,86.8,71.2,29.65,WNW,299,7.0,12.0,60,0.00,,,0.00,Wunderground v.1.15,2013-07-19 22:03:00,
2013-07-19 18:04:00,86.7,71.6,29.65,WNW,299,0.0,12.0,61,0.00,,,0.00,Wunderground v.1.15,2013-07-19 22:04:00,
2013-07-19 18:05:00,86.6,72.0,29.65,NW,307,0.0,12.0,62,0.00,,,0.00,Wunderground v.1.15,2013-07-19 22:05:00,
2013-07-19 18:08:00,86.6,72.0,29.65,WNW,302,5.0,12.0,62,0.00,,,0.00,Wunderground v.1.15,2013-07-19 22:08:00,
2013-07-19 18:09:00,86.6,72.5,29.65,NW,308,5.0,5.0,63,0.00,,,0.00,Wunderground v.1.15,2013-07-19 22:09:00,
2013-07-19 18:11:00,86.5,72.4,29.65,WNW,302,0.0,7.0,63,0.00,,,0.00,Wunderground v.1.15,2013-07-19 22:11:00,
2013-07-19 18:13:00,86.6,72.5,29.65,NNW,345,0.0,7.0,63,0.00,,,0.00,Wunderground v.1.15,2013-07-19 22:13:00,
2013-07-19 18:14:00,86.6,73.0,29.65,West,280,1.0,7.0,64,0.00,,,0.00,Wunderground v.1.15,2013-07-19 22:14:00,
2013-07-19 18:16:00,86.7,73.1,29.65,WNW,295,0.0,7.0,64,0.00,,,0.00,Wunderground v.1.15,2013-07-19 22:16:00,
2013-07-19 18:18:00,86.9,73.7,29.63,NW,306,0.0,8.0,65,0.00,,,0.00,Wunderground v.1.15,2013-07-19 22:18:00,
2013-07-19 18:19:00,87.0,73.3,29.63,NW,306,0.0,8.0,64,0.00,,,0.00,Wunderground v.1.15,2013-07-19 22:19:00,
2013-07-19 18:20:00,87.0,73.8,29.63,NW,307,0.0,2.0,65,0.00,,,0.00,Wunderground v.1.15,2013-07-19 22:20:00,
2013-07-19 18:21:00,87.1,73.9,29.63,NW,304,6.0,6.0,65,0.00,,,0.00,Wunderground v.1.15,2013-07-19 22:21:00,
2013-07-19 18:23:00,87.3,74.1,29.63,NW,310,1.0,6.0,65,0.00,,,0.00,Wunderground v.1.15,2013-07-19 22:23:00,
2013-07-19 18:24:00,87.3,74.1,29.63,WNW,295,2.0,8.0,65,0.00,,,0.00,Wunderground v.1.15,2013-07-19 22:24:00,
2013-07-19 18:25:00,87.3,74.1,29.63,WNW,301,5.0,8.0,65,0.00,,,0.00,Wunderground v.1.15,2013-07-19 22:25:00,
2013-07-19 18:26:00,87.3,74.5,29.63,WNW,300,0.0,8.0,66,0.00,,,0.00,Wunderground v.1.15,2013-07-19 22:26:00,
2013-07-19 18:28:00,87.5,74.7,29.63,NNW,340,1.0,8.0,66,0.00,,,0.00,Wunderground v.1.15,2013-07-19 22:28:00,
2013-07-19 18:29:00,87.5,74.7,29.63,NNW,340,0.0,8.0,66,0.00,,,0.00,Wunderground v.1.15,2013-07-19 22:29:00,
2013-07-19 18:30:00,87.5,74.7,29.63,NNW,340,0.0,1.0,66,0.00,,,0.00,Wunderground v.1.15,2013-07-19 22:30:00,
2013-07-19 18:31:00,87.5,74.7,29.63,NNW,344,2.0,7.0,66,0.00,,,0.00,Wunderground v.1.15,2013-07-19 22:31:00,
2013-07-19 18:34:00,87.6,74.8,29.63,NW,322,0.0,7.0,66,0.00,,,0.00,Wunderground v.1.15,2013-07-19 22:34:00,
2013-07-19 18:35:00,87.7,74.9,29.63,NW,321,0.0,7.0,66,0.00,,,0.00,Wunderground v.1.15,2013-07-19 22:35:00,
2013-07-19 18:36:00,87.7,75.4,29.63,NW,320,0.0,7.0,67,0.00,,,0.00,Wunderground v.1.15,2013-07-19 22:36:00,
2013-07-19 18:39:00,87.9,75.1,29.63,NW,313,0.0,9.0,66,0.00,,,0.00,Wunderground v.1.15,2013-07-19 22:39:00,
2013-07-19 18:40:00,88.1,75.3,29.63,NNW,340,0.0,6.0,66,0.00,,,0.00,Wunderground v.1.15,2013-07-19 22:40:00,
2013-07-19 18:41:00,88.2,75.4,29.63,WNW,288,4.0,6.0,66,0.00,,,0.00,Wunderground v.1.15,2013-07-19 22:41:00,
2013-07-19 18:44:00,88.4,75.6,29.63,NW,321,4.0,6.0,66,0.00,,,0.00,Wunderground v.1.15,2013-07-19 22:44:00,
2013-07-19 18:45:00,88.4,75.6,29.63,NW,326,4.0,8.0,66,0.00,,,0.00,Wunderground v.1.15,2013-07-19 22:45:00,
2013-07-19 18:47:00,88.4,75.1,29.63,NW,312,2.0,8.0,65,0.00,,,0.00,Wunderground v.1.15,2013-07-19 22:47:00,
2013-07-19 18:49:00,88.2,75.4,29.63,NW,311,2.0,8.0,66,0.00,,,0.00,Wunderground v.1.15,2013-07-19 22:49:00,
2013-07-19 18:50:00,88.1,75.3,29.63,NW,311,2.0,3.0,66,0.00,,,0.00,Wunderground v.1.15,2013-07-19 22:50:00,
2013-07-19 18:52:00,87.9,75.6,29.63,NW,311,0.0,3.0,67,0.00,,,0.00,Wunderground v.1.15,2013-07-19 22:52:00,
2013-07-19 18:54:00,87.7,75.4,29.63,NW,311,0.0,3.0,67,0.00,,,0.00,Wunderground v.1.15,2013-07-19 22:54:00,
2013-07-19 18:56:00,87.7,75.8,29.63,NW,311,0.0,5.0,68,0.00,,,0.00,Wunderground v.1.15,2013-07-19 22:56:00,
2013-07-19 18:57:00,87.7,75.8,29.63,NW,311,0.0,5.0,68,0.00,,,0.00,Wunderground v.1.15,2013-07-19 22:57:00,
2013-07-19 19:00:00,87.9,76.0,29.63,WNW,292,0.0,1.0,68,0.00,,,0.00,Wunderground v.1.15,2013-07-19 23:00:00,
2013-07-19 19:01:00,88.0,75.7,29.63,WNW,292,0.0,1.0,67,0.00,,,0.00,Wunderground v.1.15,2013-07-19 23:01:00,
2013-07-19 19:02:00,88.1,75.3,29.63,North,5,0.0,1.0,66,0.00,,,0.00,Wunderground v.1.15,2013-07-19 23:02:00,
2013-07-19 19:05:00,88.3,75.9,29.63,NNE,21,0.0,6.0,67,0.00,,,0.00,Wunderground v.1.15,2013-07-19 23:05:00,
2013-07-19 19:06:00,88.4,75.6,29.63,NNW,333,3.0,6.0,66,0.00,,,0.00,Wunderground v.1.15,2013-07-19 23:06:00,
2013-07-19 19:07:00,88.4,75.6,29.63,NNW,334,0.0,6.0,66,0.00,,,0.00,Wunderground v.1.15,2013-07-19 23:07:00,
2013-07-19 19:10:00,88.5,75.2,29.63,NNW,344,4.0,4.0,65,0.00,,,0.00,Wunderground v.1.15,2013-07-19 23:10:00,
2013-07-19 19:11:00,88.5,75.2,29.63,WNW,302,5.0,8.0,65,0.00,,,0.00,Wunderground v.1.15,2013-07-19 23:11:00,
2013-07-19 19:12:00,88.5,75.2,29.63,NW,306,2.0,8.0,65,0.00,,,0.00,Wunderground v.1.15,2013-07-19 23:12:00,
2013-07-19 19:15:00,88.3,75.0,29.63,WNW,295,5.0,9.0,65,0.00,,,0.00,Wunderground v.1.15,2013-07-19 23:15:00,
2013-07-19 19:16:00,88.2,74.9,29.63,WNW,297,4.0,9.0,65,0.00,,,0.00,Wunderground v.1.15,2013-07-19 23:16:00,
2013-07-19 19:17:00,88.2,74.5,29.63,WNW,302,8.0,9.0,64,0.00,,,0.00,Wunderground v.1.15,2013-07-19 23:17:00,
2013-07-19 19:20:00,88.0,74.8,29.63,NW,315,2.0,4.0,65,0.00,,,0.00,Wunderground v.1.15,2013-07-19 23:20:00,
2013-07-19 19:22:00,87.9,74.7,29.63,NW,315,0.0,4.0,65,0.00,,,0.00,Wunderground v.1.15,2013-07-19 23:22:00,
2013-07-19 19:23:00,87.8,74.6,29.63,West,281,1.0,6.0,65,0.00,,,0.00,Wunderground v.1.15,2013-07-19 23:23:00,
2013-07-19 19:25:00,87.6,74.4,29.63,NW,324,4.0,9.0,65,0.00,,,0.00,Wunderground v.1.15,2013-07-19 23:25:00,
2013-07-19 19:26:00,87.5,74.3,29.63,NW,323,1.0,9.0,65,0.00,,,0.00,Wunderground v.1.15,2013-07-19 23:26:00,
2013-07-19 19:27:00,87.5,74.3,29.63,NW,310,4.0,9.0,65,0.00,,,0.00,Wunderground v.1.15,2013-07-19 23:27:00,
2013-07-19 19:28:00,87.4,74.2,29.63,NW,309,1.0,9.0,65,0.00,,,0.00,Wunderground v.1.15,2013-07-19 23:28:00,
2013-07-19 19:30:00,87.3,74.1,29.63,WNW,287,0.0,3.0,65,0.00,,,0.00,Wunderground v.1.15,2013-07-19 23:30:00,
2013-07-19 19:31:00,87.3,74.1,29.63,WNW,287,0.0,3.0,65,0.00,,,0.00,Wunderground v.1.15,2013-07-19 23:31:00,
2013-07-19 19:32:00,87.3,74.1,29.63,WNW,301,4.0,5.0,65,0.00,,,0.00,Wunderground v.1.15,2013-07-19 23:32:00,
2013-07-19 19:33:00,87.3,74.1,29.63,WNW,301,0.0,5.0,65,0.00,,,0.00,Wunderground v.1.15,2013-07-19 23:33:00,
2013-07-19 19:35:00,87.4,74.2,29.63,WNW,292,4.0,7.0,65,0.00,,,0.00,Wunderground v.1.15,2013-07-19 23:35:00,
2013-07-19 19:36:00,87.4,74.2,29.63,WNW,293,0.0,7.0,65,0.00,,,0.00,Wunderground v.1.15,2013-07-19 23:36:00,
2013-07-19 19:37:00,87.5,73.8,29.63,WNW,293,4.0,7.0,64,0.00,,,0.00,Wunderground v.1.15,2013-07-19 23:37:00,
2013-07-19 19:38:00,87.6,73.9,29.63,NW,304,3.0,10.0,64,0.00,,,0.00,Wunderground v.1.15,2013-07-19 23:38:00,
2013-07-19 19:40:00,87.7,74.0,29.63,NW,314,0.0,7.0,64,0.00,,,0.00,Wunderground v.1.15,2013-07-19 23:40:00,
2013-07-19 19:41:00,87.7,74.0,29.63,NW,315,1.0,7.0,64,0.00,,,0.00,Wunderground v.1.15,2013-07-19 23:41:00,
2013-07-19 19:42:00,87.8,74.1,29.63,NW,319,0.0,7.0,64,0.00,,,0.00,Wunderground v.1.15,2013-07-19 23:42:00,
2013-07-19 19:43:00,87.9,74.2,29.63,NW,321,2.0,7.0,64,0.00,,,0.00,Wunderground v.1.15,2013-07-19 23:43:00,
2013-07-19 19:44:00,87.9,74.2,29.63,NW,312,7.0,7.0,64,0.00,,,0.00,Wunderground v.1.15,2013-07-19 23:44:00,
2013-07-19 19:46:00,88.0,73.8,29.63,NNW,333,4.0,8.0,63,0.00,,,0.00,Wunderground v.1.15,2013-07-19 23:46:00,
2013-07-19 19:47:00,88.0,73.8,29.63,North,350,4.0,8.0,63,0.00,,,0.00,Wunderground v.1.15,2013-07-19 23:47:00,
2013-07-19 19:48:00,88.1,73.9,29.63,North,351,0.0,8.0,63,0.00,,,0.00,Wunderground v.1.15,2013-07-19 23:48:00,
2013-07-19 19:50:00,88.1,73.9,29.63,NW,315,1.0,2.0,63,0.00,,,0.00,Wunderground v.1.15,2013-07-19 23:50:00,
2013-07-19 19:51:00,88.1,73.9,29.63,NW,317,2.0,5.0,63,0.00,,,0.00,Wunderground v.1.15,2013-07-19 23:51:00,
2013-07-19 19:52:00,88.1,73.9,29.63,NW,313,1.0,7.0,63,0.00,,,0.00,Wunderground v.1.15,2013-07-19 23:52:00,
2013-07-19 19:54:00,88.1,73.9,29.63,WNW,289,7.0,9.0,63,0.00,,,0.00,Wunderground v.1.15,2013-07-19 23:54:00,
2013-07-19 19:55:00,88.1,73.9,29.63,North,355,1.0,9.0,63,0.00,,,0.00,Wunderground v.1.15,2013-07-19 23:55:00,
2013-07-19 19:56:00,88.1,73.9,29.63,North,355,2.0,9.0,63,0.00,,,0.00,Wunderground v.1.15,2013-07-19 23:56:00,
2013-07-19 19:57:00,88.0,73.8,29.63,NW,313,2.0,9.0,63,0.00,,,0.00,Wunderground v.1.15,2013-07-19 23:57:00,
2013-07-19 19:58:00,88.0,73.8,29.63,NNW,327,1.0,9.0,63,0.00,,,0.00,Wunderground v.1.15,2013-07-19 23:58:00,
2013-07-19 19:59:00,87.9,73.7,29.63,NNW,327,0.0,9.0,63,0.00,,,0.00,Wunderground v.1.15,2013-07-19 23:59:00,
2013-07-19 20:00:00,87.8,73.6,29.63,NNW,334,1.0,5.0,63,0.00,,,0.00,Wunderground v.1.15,2013-07-20 00:00:00,
2013-07-19 20:01:00,87.8,73.6,29.63,NNW,334,0.0,5.0,63,0.00,,,0.00,Wunderground v.1.15,2013-07-20 00:01:00,
2013-07-19 20:02:00,87.7,74.0,29.63,NW,309,2.0,5.0,64,0.00,,,0.00,Wunderground v.1.15,2013-07-20 00:02:00,
2013-07-19 20:03:00,87.7,73.5,29.63,NW,309,2.0,5.0,63,0.00,,,0.00,Wunderground v.1.15,2013-07-20 00:03:00,
2013-07-19 20:04:00,87.6,73.9,29.63,NW,306,0.0,7.0,64,0.00,,,0.00,Wunderground v.1.15,2013-07-20 00:04:00,
2013-07-19 20:05:00,87.5,73.3,29.63,NW,306,0.0,7.0,63,0.00,,,0.00,Wunderground v.1.15,2013-07-20 00:05:00,
2013-07-19 20:06:00,87.5,73.8,29.63,NW,306,0.0,7.0,64,0.00,,,0.00,Wunderground v.1.15,2013-07-20 00:06:00,
2013-07-19 20:07:00,87.5,73.8,29.63,WNW,299,4.0,7.0,64,0.00,,,0.00,Wunderground v.1.15,2013-07-20 00:07:00,
2013-07-19 20:08:00,87.5,73.8,29.63,NNW,344,5.0,7.0,64,0.00,,,0.00,Wunderground v.1.15,2013-07-20 00:08:00,
2013-07-19 20:09:00,87.5,73.3,29.63,NNW,342,4.0,5.0,63,0.00,,,0.00,Wunderground v.1.15,2013-07-20 00:09:00,
2013-07-19 20:10:00,87.5,73.3,29.63,NNW,336,0.0,5.0,63,0.00,,,0.00,Wunderground v.1.15,2013-07-20 00:10:00,
2013-07-19 20:12:00,87.5,73.3,29.63,WNW,294,4.0,5.0,63,0.00,,,0.00,Wunderground v.1.15,2013-07-20 00:12:00,
2013-07-19 20:13:00,87.5,72.9,29.63,NW,304,8.0,9.0,62,0.00,,,0.00,Wunderground v.1.15,2013-07-20 00:13:00,
2013-07-19 20:14:00,87.5,72.9,29.63,North,355,2.0,9.0,62,0.00,,,0.00,Wunderground v.1.15,2013-07-20 00:14:00,
2013-07-19 20:16:00,87.5,72.9,29.63,NW,316,3.0,9.0,62,0.00,,,0.00,Wunderground v.1.15,2013-07-20 00:16:00,
2013-07-19 20:17:00,87.4,72.8,29.63,NW,313,4.0,9.0,62,0.00,,,0.00,Wunderground v.1.15,2013-07-20 00:17:00,
2013-07-19 20:18:00,87.4,72.8,29.63,NW,315,8.0,9.0,62,0.00,,,0.00,Wunderground v.1.15,2013-07-20 00:18:00,
2013-07-19 20:19:00,87.4,72.8,29.63,NNW,342,4.0,10.0,62,0.00,,,0.00,Wunderground v.1.15,2013-07-20 00:19:00,
2013-07-19 20:20:00,87.4,72.8,29.63,WNW,300,4.0,10.0,62,0.00,,,0.00,Wunderground v.1.15,2013-07-20 00:20:00,
2013-07-19 20:21:00,87.4,72.8,29.63,NW,311,4.0,10.0,62,0.00,,,0.00,Wunderground v.1.15,2013-07-20 00:21:00,
2013-07-19 20:22:00,87.4,72.8,29.63,WNW,298,0.0,10.0,62,0.00,,,0.00,Wunderground v.1.15,2013-07-20 00:22:00,
2013-07-19 20:23:00,87.4,72.8,29.63,WNW,298,2.0,10.0,62,0.00,,,0.00,Wunderground v.1.15,2013-07-20 00:23:00,
2013-07-19 20:24:00,87.4,72.8,29.63,NW,315,2.0,11.0,62,0.00,,,0.00,Wunderground v.1.15,2013-07-20 00:24:00,
2013-07-19 20:25:00,87.3,72.7,29.63,North,360,0.0,12.0,62,0.00,,,0.00,Wunderground v.1.15,2013-07-20 00:25:00,
2013-07-19 20:26:00,87.3,72.2,29.63,WNW,299,4.0,12.0,61,0.00,,,0.00,Wunderground v.1.15,2013-07-20 00:26:00,
2013-07-19 20:27:00,87.3,72.2,29.63,WNW,299,0.0,12.0,61,0.00,,,0.00,Wunderground v.1.15,2013-07-20 00:27:00,
2013-07-19 20:28:00,87.2,72.6,29.63,NW,304,8.0,12.0,62,0.00,,,0.00,Wunderground v.1.15,2013-07-20 00:28:00,
2013-07-19 20:29:00,87.2,72.6,29.63,NW,304,5.0,12.0,62,0.00,,,0.00,Wunderground v.1.15,2013-07-20 00:29:00,
2013-07-19 20:30:00,87.1,72.5,29.63,WNW,299,3.0,6.0,62,0.00,,,0.00,Wunderground v.1.15,2013-07-20 00:30:00,
2013-07-19 20:31:00,87.1,72.5,29.63,WNW,299,0.0,6.0,62,0.00,,,0.00,Wunderground v.1.15,2013-07-20 00:31:00,
2013-07-19 20:32:00,87.1,72.5,29.63,West,277,1.0,6.0,62,0.00,,,0.00,Wunderground v.1.15,2013-07-20 00:32:00,
2013-07-19 20:33:00,87.1,72.0,29.63,WNW,296,0.0,11.0,61,0.00,,,0.00,Wunderground v.1.15,2013-07-20 00:33:00,
2013-07-19 20:34:00,87.1,72.5,29.63,North,349,6.0,11.0,62,0.00,,,0.00,Wunderground v.1.15,2013-07-20 00:34:00,
2013-07-19 20:35:00,87.0,71.9,29.63,NW,321,10.0,12.0,61,0.00,,,0.00,Wunderground v.1.15,2013-07-20 00:35:00,
2013-07-19 20:36:00,87.0,71.9,29.63,NNW,327,2.0,12.0,61,0.00,,,0.00,Wunderground v.1.15,2013-07-20 00:36:00,
2013-07-19 20:38:00,86.9,72.3,29.63,NNW,327,1.0,12.0,62,0.00,,,0.00,Wunderground v.1.15,2013-07-20 00:38:00,
2013-07-19 20:39:00,86.9,72.3,29.63,NNW,327,1.0,2.0,62,0.00,,,0.00,Wunderground v.1.15,2013-07-20 00:39:00,
2013-07-19 20:41:00,86.8,72.2,29.63,WNW,296,0.0,8.0,62,0.00,,,0.00,Wunderground v.1.15,2013-07-20 00:41:00,
2013-07-19 20:42:00,86.8,72.2,29.63,WNW,296,1.0,8.0,62,0.00,,,0.00,Wunderground v.1.15,2013-07-20 00:42:00,
2013-07-19 20:43:00,86.8,72.2,29.63,WNW,296,1.0,8.0,62,0.00,,,0.00,Wunderground v.1.15,2013-07-20 00:43:00,
2013-07-19 20:44:00,86.7,72.1,29.63,WNW,288,1.0,8.0,62,0.00,,,0.00,Wunderground v.1.15,2013-07-20 00:44:00,
2013-07-19 20:45:00,86.7,71.6,29.63,WNW,299,5.0,14.0,61,0.00,,,0.00,Wunderground v.1.15,2013-07-20 00:45:00,
2013-07-19 20:46:00,86.6,71.5,29.63,NW,313,0.0,14.0,61,0.00,,,0.00,Wunderground v.1.15,2013-07-20 00:46:00,
2013-07-19 20:47:00,86.6,71.5,29.63,NW,313,0.0,14.0,61,0.00,,,0.00,Wunderground v.1.15,2013-07-20 00:47:00,
2013-07-19 20:48:00,86.6,72.0,29.62,NW,313,0.0,14.0,62,0.00,,,0.00,Wunderground v.1.15,2013-07-20 00:48:00,
2013-07-19 20:49:00,86.5,71.9,29.62,NW,322,0.0,14.0,62,0.00,,,0.00,Wunderground v.1.15,2013-07-20 00:49:00,
2013-07-19 20:50:00,86.5,71.9,29.62,NW,323,0.0,2.0,62,0.00,,,0.00,Wunderground v.1.15,2013-07-20 00:50:00,
2013-07-19 20:51:00,86.4,71.8,29.62,NNW,342,5.0,7.0,62,0.00,,,0.00,Wunderground v.1.15,2013-07-20 00:51:00,
2013-07-19 20:52:00,86.4,71.8,29.62,NNW,342,0.0,7.0,62,0.00,,,0.00,Wunderground v.1.15,2013-07-20 00:52:00,
2013-07-19 20:53:00,86.3,71.7,29.62,WNW,296,0.0,7.0,62,0.00,,,0.00,Wunderground v.1.15,2013-07-20 00:53:00,
2013-07-19 20:54:00,86.3,71.7,29.62,WNW,298,0.0,7.0,62,0.00,,,0.00,Wunderground v.1.15,2013-07-20 00:54:00,
2013-07-19 20:55:00,86.3,71.7,29.62,NW,306,1.0,7.0,62,0.00,,,0.00,Wunderground v.1.15,2013-07-20 00:55:00,
2013-07-19 20:57:00,86.2,71.6,29.62,NW,312,0.0,8.0,62,0.00,,,0.00,Wunderground v.1.15,2013-07-20 00:57:00,
2013-07-19 20:58:00,86.1,71.6,29.62,NW,310,7.0,8.0,62,0.00,,,0.00,Wunderground v.1.15,2013-07-20 00:58:00,
2013-07-19 20:59:00,86.1,71.6,29.62,NW,306,0.0,2.0,62,0.00,,,0.00,Wunderground v.1.15,2013-07-20 00:59:00,
2013-07-19 21:00:00,86.1,71.6,29.62,WNW,294,0.0,5.0,62,0.00,,,0.00,Wunderground v.1.15,2013-07-20 01:00:00,
2013-07-19 21:02:00,86.0,71.5,29.61,NW,309,0.0,5.0,62,0.00,,,0.00,Wunderground v.1.15,2013-07-20 01:02:00,
2013-07-19 21:04:00,85.9,71.8,29.61,NW,309,0.0,5.0,63,0.00,,,0.00,Wunderground v.1.15,2013-07-20 01:04:00,
2013-07-19 21:05:00,85.9,71.8,29.61,NW,321,5.0,10.0,63,0.00,,,0.00,Wunderground v.1.15,2013-07-20 01:05:00,
2013-07-19 21:07:00,85.8,71.7,29.61,NNW,348,0.0,10.0,63,0.00,,,0.00,Wunderground v.1.15,2013-07-20 01:07:00,
2013-07-19 21:09:00,85.7,71.7,29.61,NW,326,4.0,10.0,63,0.00,,,0.00,Wunderground v.1.15,2013-07-20 01:09:00,
2013-07-19 21:10:00,85.7,71.7,29.61,NW,318,0.0,5.0,63,0.00,,,0.00,Wunderground v.1.15,2013-07-20 01:10:00,
2013-07-19 21:11:00,85.6,71.6,29.61,NW,318,0.0,5.0,63,0.00,,,0.00,Wunderground v.1.15,2013-07-20 01:11:00,
2013-07-19 21:12:00,85.6,71.6,29.61,NW,313,0.0,9.0,63,0.00,,,0.00,Wunderground v.1.15,2013-07-20 01:12:00,
2013-07-19 21:13:00,85.6,71.6,29.61,NW,313,0.0,9.0,63,0.00,,,0.00,Wunderground v.1.15,2013-07-20 01:13:00,
2013-07-19 21:14:00,85.5,71.5,29.61,North,5,0.0,9.0,63,0.00,,,0.00,Wunderground v.1.15,2013-07-20 01:14:00,
2013-07-19 21:15:00,85.5,71.5,29.61,North,5,0.0,9.0,63,0.00,,,0.00,Wunderground v.1.15,2013-07-20 01:15:00,
2013-07-19 21:16:00,85.5,71.5,29.61,North,5,0.0,9.0,63,0.00,,,0.00,Wunderground v.1.15,2013-07-20 01:16:00,
2013-07-19 21:17:00,85.4,71.4,29.61,North,5,0.0,9.0,63,0.00,,,0.00,Wunderground v.1.15,2013-07-20 01:17:00,
2013-07-19 21:18:00,85.4,71.4,29.61,NW,321,0.0,9.0,63,0.00,,,0.00,Wunderground v.1.15,2013-07-20 01:18:00,
2013-07-19 21:19:00,85.3,71.7,29.61,NW,321,0.0,9.0,64,0.00,,,0.00,Wunderground v.1.15,2013-07-20 01:19:00,
2013-07-19 21:20:00,85.3,71.7,29.61,WNW,286,0.0,1.0,64,0.00,,,0.00,Wunderground v.1.15,2013-07-20 01:20:00,
2013-07-19 21:21:00,85.3,71.7,29.61,WNW,292,8.0,8.0,64,0.00,,,0.00,Wunderground v.1.15,2013-07-20 01:21:00,
2013-07-19 21:22:00,85.2,71.6,29.61,NW,308,4.0,8.0,64,0.00,,,0.00,Wunderground v.1.15,2013-07-20 01:22:00,
2013-07-19 21:23:00,85.2,71.6,29.61,NW,307,0.0,8.0,64,0.00,,,0.00,Wunderground v.1.15,2013-07-20 01:23:00,
2013-07-19 21:24:00,85.2,71.6,29.61,NW,308,0.0,8.0,64,0.00,,,0.00,Wunderground v.1.15,2013-07-20 01:24:00,
2013-07-19 21:26:00,85.1,71.5,29.61,NW,308,0.0,8.0,64,0.00,,,0.00,Wunderground v.1.15,2013-07-20 01:26:00,
2013-07-19 21:28:00,85.1,71.5,29.61,NW,308,0.0,8.0,64,0.00,,,0.00,Wunderground v.1.15,2013-07-20 01:28:00,
2013-07-19 21:29:00,85.0,71.5,29.61,NW,308,0.0,8.0,64,0.00,,,0.00,Wunderground v.1.15,2013-07-20 01:29:00,
2013-07-19 21:31:00,85.0,71.9,29.61,NW,308,0.0,1.0,65,0.00,,,0.00,Wunderground v.1.15,2013-07-20 01:31:00,
2013-07-19 21:33:00,84.9,71.8,29.61,NW,308,0.0,1.0,65,0.00,,,0.00,Wunderground v.1.15,2013-07-20 01:33:00,
2013-07-19 21:34:00,84.8,71.7,29.61,NW,308,0.0,1.0,65,0.00,,,0.00,Wunderground v.1.15,2013-07-20 01:34:00,
2013-07-19 21:36:00,84.7,71.6,29.61,NW,307,0.0,1.0,65,0.00,,,0.00,Wunderground v.1.15,2013-07-20 01:36:00,
2013-07-19 21:37:00,84.7,71.6,29.61,NW,308,0.0,1.0,65,0.00,,,0.00,Wunderground v.1.15,2013-07-20 01:37:00,
2013-07-19 21:38:00,84.7,71.6,29.61,NW,308,0.0,1.0,65,0.00,,,0.00,Wunderground v.1.15,2013-07-20 01:38:00,
2013-07-19 21:39:00,84.7,72.1,29.61,NW,308,0.0,1.0,66,0.00,,,0.00,Wunderground v.1.15,2013-07-20 01:39:00,
2013-07-19 21:41:00,84.5,71.9,29.61,NW,308,0.0,1.0,66,0.00,,,0.00,Wunderground v.1.15,2013-07-20 01:41:00,
2013-07-19 21:42:00,84.5,71.9,29.61,NW,308,0.0,1.0,66,0.00,,,0.00,Wunderground v.1.15,2013-07-20 01:42:00,
2013-07-19 21:43:00,84.5,72.3,29.61,NW,307,0.0,1.0,67,0.00,,,0.00,Wunderground v.1.15,2013-07-20 01:43:00,
2013-07-19 21:44:00,84.4,72.2,29.61,NW,308,0.0,1.0,67,0.00,,,0.00,Wunderground v.1.15,2013-07-20 01:44:00,
2013-07-19 21:45:00,84.4,72.2,29.61,NW,307,0.0,1.0,67,0.00,,,0.00,Wunderground v.1.15,2013-07-20 01:45:00,
2013-07-19 21:46:00,84.3,72.6,29.61,NW,307,0.0,1.0,68,0.00,,,0.00,Wunderground v.1.15,2013-07-20 01:46:00,
2013-07-19 21:47:00,84.3,72.6,29.62,NW,308,0.0,1.0,68,0.00,,,0.00,Wunderground v.1.15,2013-07-20 01:47:00,
2013-07-19 21:48:00,84.2,72.5,29.62,NW,308,0.0,1.0,68,0.00,,,0.00,Wunderground v.1.15,2013-07-20 01:48:00,
2013-07-19 21:49:00,84.2,72.9,29.62,NW,307,0.0,1.0,69,0.00,,,0.00,Wunderground v.1.15,2013-07-20 01:49:00,
2013-07-19 21:50:00,84.2,72.9,29.62,NW,308,0.0,0.0,69,0.00,,,0.00,Wunderground v.1.15,2013-07-20 01:50:00,
2013-07-19 21:51:00,84.1,72.8,29.62,NW,308,0.0,0.0,69,0.00,,,0.00,Wunderground v.1.15,2013-07-20 01:51:00,
2013-07-19 21:52:00,84.1,73.3,29.62,NW,307,0.0,0.0,70,0.00,,,0.00,Wunderground v.1.15,2013-07-20 01:52:00,
2013-07-19 21:53:00,84.1,73.3,29.62,NW,308,0.0,0.0,70,0.00,,,0.00,Wunderground v.1.15,2013-07-20 01:53:00,
2013-07-19 21:54:00,84.0,73.2,29.62,NW,307,0.0,0.0,70,0.00,,,0.00,Wunderground v.1.15,2013-07-20 01:54:00,
2013-07-19 21:55:00,84.0,73.2,29.62,NW,307,0.0,0.0,70,0.00,,,0.00,Wunderground v.1.15,2013-07-20 01:55:00,
2013-07-19 21:57:00,83.9,73.5,29.62,WSW,245,0.0,3.0,71,0.00,,,0.00,Wunderground v.1.15,2013-07-20 01:57:00,
2013-07-19 21:58:00,83.9,73.5,29.62,WNW,298,5.0,6.0,71,0.00,,,0.00,Wunderground v.1.15,2013-07-20 01:58:00,
2013-07-19 21:59:00,83.8,73.4,29.62,WNW,296,0.0,0.0,71,0.00,,,0.00,Wunderground v.1.15,2013-07-20 01:59:00,
2013-07-19 22:00:00,83.8,73.4,29.62,WNW,296,0.0,4.0,71,0.00,,,0.00,Wunderground v.1.15,2013-07-20 02:00:00,
2013-07-19 22:02:00,83.7,73.3,29.62,NNW,341,0.0,5.0,71,0.00,,,0.00,Wunderground v.1.15,2013-07-20 02:02:00,
2013-07-19 22:03:00,83.7,73.3,29.62,NNW,340,0.0,5.0,71,0.00,,,0.00,Wunderground v.1.15,2013-07-20 02:03:00,
2013-07-19 22:04:00,83.7,73.3,29.62,NNW,340,0.0,5.0,71,0.00,,,0.00,Wunderground v.1.15,2013-07-20 02:04:00,
2013-07-19 22:05:00,83.7,73.3,29.62,West,264,0.0,5.0,71,0.00,,,0.00,Wunderground v.1.15,2013-07-20 02:05:00,
2013-07-19 22:08:00,83.6,73.2,29.62,WNW,300,6.0,7.0,71,0.00,,,0.00,Wunderground v.1.15,2013-07-20 02:08:00,
2013-07-19 22:09:00,83.6,73.2,29.62,WNW,300,0.0,7.0,71,0.00,,,0.00,Wunderground v.1.15,2013-07-20 02:09:00,
2013-07-19 22:10:00,83.5,73.1,29.62,WNW,300,0.0,1.0,71,0.00,,,0.00,Wunderground v.1.15,2013-07-20 02:10:00,
2013-07-19 22:13:00,83.5,73.5,29.62,WNW,300,0.0,1.0,72,0.00,,,0.00,Wunderground v.1.15,2013-07-20 02:13:00,
2013-07-19 22:14:00,83.4,73.4,29.62,WNW,300,4.0,5.0,72,0.00,,,0.00,Wunderground v.1.15,2013-07-20 02:14:00,
2013-07-19 22:15:00,83.4,73.4,29.62,WNW,300,0.0,5.0,72,0.00,,,0.00,Wunderground v.1.15,2013-07-20 02:15:00,
2013-07-19 22:18:00,83.3,72.9,29.61,West,273,0.0,5.0,71,0.00,,,0.00,Wunderground v.1.15,2013-07-20 02:18:00,
2013-07-19 22:19:00,83.3,72.9,29.61,West,275,0.0,5.0,71,0.00,,,0.00,Wunderground v.1.15,2013-07-20 02:19:00,
2013-07-19 22:20:00,83.3,73.3,29.61,West,275,0.0,0.0,72,0.00,,,0.00,Wunderground v.1.15,2013-07-20 02:20:00,
2013-07-19 22:21:00,83.3,73.3,29.61,West,275,0.0,0.0,72,0.00,,,0.00,Wunderground v.1.15,2013-07-20 02:21:00,
2013-07-19 22:23:00,83.3,73.3,29.61,WNW,291,7.0,11.0,72,0.00,,,0.00,Wunderground v.1.15,2013-07-20 02:23:00,
2013-07-19 22:24:00,83.2,73.2,29.61,NW,306,0.0,11.0,72,0.00,,,0.00,Wunderground v.1.15,2013-07-20 02:24:00,
2013-07-19 22:25:00,83.2,73.2,29.61,NW,306,0.0,11.0,72,0.00,,,0.00,Wunderground v.1.15,2013-07-20 02:25:00,
2013-07-19 22:26:00,83.2,73.2,29.61,NW,306,0.0,11.0,72,0.00,,,0.00,Wunderground v.1.15,2013-07-20 02:26:00,
2013-07-19 22:28:00,83.2,73.2,29.61,NNW,348,2.0,11.0,72,0.00,,,0.00,Wunderground v.1.15,2013-07-20 02:28:00,
2013-07-19 22:29:00,83.2,73.2,29.61,NW,312,6.0,11.0,72,0.00,,,0.00,Wunderground v.1.15,2013-07-20 02:29:00,
2013-07-19 22:30:00,83.2,73.2,29.61,NW,314,1.0,5.0,72,0.00,,,0.00,Wunderground v.1.15,2013-07-20 02:30:00,
2013-07-19 22:31:00,83.2,73.2,29.61,NW,314,3.0,5.0,72,0.00,,,0.00,Wunderground v.1.15,2013-07-20 02:31:00,
2013-07-19 22:33:00,83.2,73.2,29.61,NNW,327,5.0,14.0,72,0.00,,,0.00,Wunderground v.1.15,2013-07-20 02:33:00,
2013-07-19 22:34:00,83.2,73.2,29.61,WNW,291,4.0,14.0,72,0.00,,,0.00,Wunderground v.1.15,2013-07-20 02:34:00,
2013-07-19 22:35:00,83.2,73.2,29.61,WNW,303,7.0,14.0,72,0.00,,,0.00,Wunderground v.1.15,2013-07-20 02:35:00,
2013-07-19 22:36:00,83.2,73.2,29.61,WNW,294,3.0,14.0,72,0.00,,,0.00,Wunderground v.1.15,2013-07-20 02:36:00,
2013-07-19 22:38:00,83.2,73.2,29.61,NW,311,0.0,14.0,72,0.00,,,0.00,Wunderground v.1.15,2013-07-20 02:38:00,
2013-07-19 22:39:00,83.2,73.2,29.61,NW,311,0.0,14.0,72,0.00,,,0.00,Wunderground v.1.15,2013-07-20 02:39:00,
2013-07-19 22:40:00,83.2,73.2,29.61,NW,318,2.0,7.0,72,0.00,,,0.00,Wunderground v.1.15,2013-07-20 02:40:00,
2013-07-19 22:41:00,83.2,73.2,29.61,NW,310,4.0,9.0,72,0.00,,,0.00,Wunderground v.1.15,2013-07-20 02:41:00,
2013-07-19 22:44:00,83.2,73.2,29.61,NW,320,2.0,9.0,72,0.00,,,0.00,Wunderground v.1.15,2013-07-20 02:44:00,
2013-07-19 22:45:00,83.2,73.2,29.61,North,355,2.0,9.0,72,0.00,,,0.00,Wunderground v.1.15,2013-07-20 02:45:00,
2013-07-19 22:47:00,83.2,73.2,29.61,North,355,0.0,9.0,72,0.00,,,0.00,Wunderground v.1.15,2013-07-20 02:47:00,
2013-07-19 22:49:00,83.1,73.5,29.62,NW,315,1.0,9.0,73,0.00,,,0.00,Wunderground v.1.15,2013-07-20 02:49:00,
2013-07-19 22:50:00,83.1,73.5,29.62,WNW,292,5.0,7.0,73,0.00,,,0.00,Wunderground v.1.15,2013-07-20 02:50:00,
2013-07-19 22:52:00,83.1,73.5,29.62,NW,316,6.0,8.0,73,0.00,,,0.00,Wunderground v.1.15,2013-07-20 02:52:00,
2013-07-19 22:54:00,83.1,73.5,29.62,NW,315,3.0,8.0,73,0.00,,,0.00,Wunderground v.1.15,2013-07-20 02:54:00,
2013-07-19 22:55:00,83.1,73.5,29.62,WNW,300,2.0,8.0,73,0.00,,,0.00,Wunderground v.1.15,2013-07-20 02:55:00,
2013-07-19 22:56:00,83.1,73.5,29.62,NNE,24,6.0,8.0,73,0.00,,,0.00,Wunderground v.1.15,2013-07-20 02:56:00,
2013-07-19 22:57:00,83.0,73.4,29.62,WNW,284,2.0,8.0,73,0.00,,,0.00,Wunderground v.1.15,2013-07-20 02:57:00,
2013-07-19 22:59:00,83.0,73.4,29.62,WNW,296,4.0,10.0,73,0.00,,,0.00,Wunderground v.1.15,2013-07-20 02:59:00,
2013-07-19 23:00:00,83.0,73.4,29.62,WNW,290,6.0,7.0,73,0.00,,,0.00,Wunderground v.1.15,2013-07-20 03:00:00,
2013-07-19 23:01:00,83.0,73.4,29.62,West,271,4.0,7.0,73,0.00,,,0.00,Wunderground v.1.15,2013-07-20 03:01:00,
2013-07-19 23:02:00,83.0,73.4,29.62,West,271,2.0,7.0,73,0.00,,,0.00,Wunderground v.1.15,2013-07-20 03:02:00,
2013-07-19 23:04:00,82.9,73.8,29.62,NNW,336,3.0,7.0,74,0.00,,,0.00,Wunderground v.1.15,2013-07-20 03:04:00,
2013-07-19 23:05:00,82.9,73.8,29.62,NNW,336,1.0,7.0,74,0.00,,,0.00,Wunderground v.1.15,2013-07-20 03:05:00,
2013-07-19 23:06:00,82.9,73.8,29.62,NNW,329,1.0,7.0,74,0.00,,,0.00,Wunderground v.1.15,2013-07-20 03:06:00,
2013-07-19 23:08:00,82.9,73.8,29.62,NW,325,0.0,7.0,74,0.00,,,0.00,Wunderground v.1.15,2013-07-20 03:08:00,
2013-07-19 23:09:00,82.9,73.8,29.62,NW,322,1.0,2.0,74,0.00,,,0.00,Wunderground v.1.15,2013-07-20 03:09:00,
2013-07-19 23:10:00,82.9,73.8,29.62,NW,322,1.0,2.0,74,0.00,,,0.00,Wunderground v.1.15,2013-07-20 03:10:00,
2013-07-19 23:11:00,82.8,73.7,29.62,NW,322,1.0,5.0,74,0.00,,,0.00,Wunderground v.1.15,2013-07-20 03:11:00,
2013-07-19 23:13:00,82.8,73.7,29.62,NNW,327,4.0,6.0,74,0.00,,,0.00,Wunderground v.1.15,2013-07-20 03:13:00,
2013-07-19 23:15:00,82.7,73.6,29.62,WNW,294,3.0,7.0,74,0.00,,,0.00,Wunderground v.1.15,2013-07-20 03:15:00,
2013-07-19 23:16:00,82.7,73.6,29.62,NW,309,7.0,10.0,74,0.00,,,0.00,Wunderground v.1.15,2013-07-20 03:16:00,
2013-07-19 23:18:00,82.6,73.9,29.61,WNW,296,9.0,10.0,75,0.00,,,0.00,Wunderground v.1.15,2013-07-20 03:18:00,
2013-07-19 23:20:00,82.6,73.9,29.61,NW,306,1.0,5.0,75,0.00,,,0.00,Wunderground v.1.15,2013-07-20 03:20:00,
2013-07-19 23:21:00,82.6,73.9,29.61,NW,311,3.0,7.0,75,0.00,,,0.00,Wunderground v.1.15,2013-07-20 03:21:00,
2013-07-19 23:22:00,82.6,73.9,29.61,NW,311,0.0,7.0,75,0.00,,,0.00,Wunderground v.1.15,2013-07-20 03:22:00,
2013-07-19 23:23:00,82.5,73.8,29.61,NW,311,1.0,7.0,75,0.00,,,0.00,Wunderground v.1.15,2013-07-20 03:23:00,
2013-07-19 23:25:00,82.5,73.8,29.61,WNW,302,5.0,7.0,75,0.00,,,0.00,Wunderground v.1.15,2013-07-20 03:25:00,
2013-07-19 23:26:00,82.5,73.8,29.61,WNW,302,5.0,7.0,75,0.00,,,0.00,Wunderground v.1.15,2013-07-20 03:26:00,
2013-07-19 23:27:00,82.5,73.8,29.61,North,350,0.0,7.0,75,0.00,,,0.00,Wunderground v.1.15,2013-07-20 03:27:00,
2013-07-19 23:28:00,82.4,73.7,29.61,NNW,329,5.0,7.0,75,0.00,,,0.00,Wunderground v.1.15,2013-07-20 03:28:00,
2013-07-19 23:30:00,82.4,74.1,29.61,WNW,295,5.0,6.0,76,0.00,,,0.00,Wunderground v.1.15,2013-07-20 03:30:00,
2013-07-19 23:31:00,82.4,74.1,29.61,WNW,296,5.0,6.0,76,0.00,,,0.00,Wunderground v.1.15,2013-07-20 03:31:00,
2013-07-19 23:32:00,82.4,74.1,29.61,WNW,300,1.0,6.0,76,0.00,,,0.00,Wunderground v.1.15,2013-07-20 03:32:00,
2013-07-19 23:34:00,82.4,74.1,29.61,WNW,300,3.0,6.0,76,0.00,,,0.00,Wunderground v.1.15,2013-07-20 03:34:00,
2013-07-19 23:35:00,82.3,74.0,29.61,NNW,332,1.0,8.0,76,0.00,,,0.00,Wunderground v.1.15,2013-07-20 03:35:00,
2013-07-19 23:36:00,82.3,74.0,29.61,NNW,332,1.0,8.0,76,0.00,,,0.00,Wunderground v.1.15,2013-07-20 03:36:00,
2013-07-19 23:37:00,82.3,74.0,29.61,NNW,333,4.0,8.0,76,0.00,,,0.00,Wunderground v.1.15,2013-07-20 03:37:00,
2013-07-19 23:39:00,82.3,74.0,29.61,WNW,298,1.0,8.0,76,0.00,,,0.00,Wunderground v.1.15,2013-07-20 03:39:00,
2013-07-19 23:41:00,82.3,74.0,29.61,WNW,292,8.0,9.0,76,0.00,,,0.00,Wunderground v.1.15,2013-07-20 03:41:00,
2013-07-19 23:42:00,82.2,73.9,29.61,WNW,290,4.0,9.0,76,0.00,,,0.00,Wunderground v.1.15,2013-07-20 03:42:00,
2013-07-19 23:44:00,82.2,73.9,29.61,WNW,288,0.0,9.0,76,0.00,,,0.00,Wunderground v.1.15,2013-07-20 03:44:00,
2013-07-19 23:46:00,82.2,74.3,29.61,NNE,28,7.0,9.0,77,0.00,,,0.00,Wunderground v.1.15,2013-07-20 03:46:00,
2013-07-19 23:47:00,82.2,74.3,29.66,ENE,58,11.0,16.0,77,0.00,,,0.00,Wunderground v.1.15,2013-07-20 03:47:00,
2013-07-19 23:49:00,81.7,72.2,29.66,NW,326,9.0,19.0,73,0.00,,,0.00,Wunderground v.1.15,2013-07-20 03:49:00,
2013-07-19 23:50:00,81.1,71.2,29.66,NW,322,9.0,12.0,72,0.00,,,0.00,Wunderground v.1.15,2013-07-20 03:50:00,
2013-07-19 23:51:00,79.8,69.6,29.66,NNE,12,6.0,19.0,71,0.00,,,0.01,Wunderground v.1.15,2013-07-20 03:51:00,
2013-07-19 23:52:00,78.6,68.8,29.66,NE,36,8.0,29.0,72,0.92,,,0.02,Wunderground v.1.15,2013-07-20 03:52:00,
2013-07-19 23:54:00,77.3,68.4,29.66,NNW,347,12.0,29.0,74,2.11,,,0.06,Wunderground v.1.15,2013-07-20 03:54:00,
2013-07-19 23:55:00,76.1,67.6,29.66,NW,318,2.0,29.0,75,1.71,,,0.08,Wunderground v.1.15,2013-07-20 03:55:00,
2013-07-19 23:56:00,75.1,68.1,29.66,NNE,16,14.0,29.0,79,1.20,,,0.11,Wunderground v.1.15,2013-07-20 03:56:00,
2013-07-19 23:57:00,74.5,68.3,29.66,North,9,3.0,29.0,81,0.75,,,0.12,Wunderground v.1.15,2013-07-20 03:57:00,
2013-07-19 23:59:00,73.8,68.7,29.66,NNW,345,4.0,29.0,84,0.59,,,0.14,Wunderground v.1.15,2013-07-20 03:59:00,